ECMWFNIL_sfc_temp_000.txt.gz
Temp
70 70 69 68 67 69 68 67 67 67 67 66 67 67 68 69 69 69 68 68 69 68 68 67 68 68 70 69 68 69 69 69 68 67 67 67 65 66 66 64 64 64
70 71 73 70 70 71 68 68 68 67 67 66 66 66 66 68 68 69 68 68 70 69 68 68 68 68 68 68 68 68 68 68 69 70 68 67 66 66 66 65 64 63
70 70 70 69 69 69 69 68 68 66 67 67 66 67 68 69 68 68 67 68 68 68 68 68 68 68 68 68 68 68 70 69 69 69 68 67 67 67 66 65 64 65
70 71 70 70 69 69 68 68 67 67 67 67 67 69 70 70 69 68 67 71 68 67 68 67 68 68 67 67 67 68 69 68 69 68 68 68 68 68 66 66 66 65
71 70 70 70 70 69 69 69 68 68 67 68 68 68 69 69 68 67 67 67 67 67 66 67 67 67 67 67 67 67 68 68 68 67 67 67 68 68 68 67 66 65
71 71 70 70 70 69 68 69 69 69 68 67 68 70 68 68 67 67 67 67 67 67 67 66 67 67 67 67 67 67 68 68 68 67 67 66 67 68 69 67 66 65
71 71 71 71 70 69 69 69 69 70 68 69 68 68 68 67 67 67 66 67 66 68 67 67 66 67 67 67 67 67 67 67 67 66 66 66 67 67 67 67 66 65
72 72 71 70 70 69 70 69 69 69 69 67 68 69 67 68 67 67 67 67 67 66 66 66 66 66 66 66 66 66 67 69 67 65 65 66 65 66 67 67 66 64
72 71 71 70 70 69 70 70 70 69 69 69 69 69 68 68 68 68 68 67 66 67 66 66 66 66 67 66 66 66 66 66 67 66 65 65 65 65 66 66 65 65
72 72 72 72 71 70 70 71 71 71 70 69 69 68 68 68 68 68 68 67 67 67 66 66 66 67 67 66 66 66 66 67 66 66 66 65 66 66 66 65 64 64
72 72 72 72 72 71 72 72 73 73 71 71 69 68 68 68 68 68 67 67 67 67 67 66 67 67 66 66 66 66 66 66 66 65 65 64 65 65 67 65 64 64
73 73 73 72 72 72 73 73 73 72 71 71 70 70 69 68 68 68 68 67 66 67 67 66 66 66 66 66 65 66 65 65 66 65 64 64 64 65 65 65 65 65
73 73 73 73 73 72 73 73 73 73 72 71 71 71 70 69 68 67 68 67 67 66 66 67 66 66 64 65 65 65 65 65 64 63 64 65 65 65 65 65 65 65
73 72 73 73 73 72 72 72 72 71 71 70 70 69 70 69 69 68 68 67 67 67 68 67 66 64 64 65 65 65 65 64 64 64 63 63 64 64 64 65 65 66
70 72 74 73 73 72 71 71 71 70 70 69 69 70 71 70 70 69 68 67 67 67 67 67 67 66 66 66 65 64 64 64 64 64 64 64 64 63 63 63 64 65
73 73 73 73 72 72 71 71 71 70 70 69 69 70 69 69 68 68 69 69 68 67 67 68 68 67 68 67 67 66 63 64 64 64 64 64 64 64 64 64 64 64
71 72 73 73 72 72 71 71 71 70 69 68 69 69 69 69 69 68 69 69 69 68 68 68 68 68 66 64 63 65 64 62 63 63 64 63 64 63 63 64 64 63
70 71 73 73 73 72 71 71 71 70 69 68 68 68 68 69 68 68 69 69 69 68 67 68 67 66 63 63 63 63 64 64 63 63 64 63 63 62 62 62 62 63
70 72 73 73 72 72 71 70 69 69 68 68 68 69 68 68 68 68 68 69 69 68 68 68 67 65 62 61 62 62 62 63 62 62 62 62 62 62 62 62 62 63
71 73 73 73 73 72 70 69 69 69 69 70 70 69 68 68 68 68 68 68 68 68 68 68 66 64 61 60 60 60 61 63 62 62 62 62 62 62 63 62 62 62
72 72 72 73 72 71 70 69 69 69 69 70 70 69 68 68 68 68 69 69 70 69 68 67 67 61 59 58 58 59 60 62 61 62 61 61 61 61 61 62 62 62
72 71 72 72 72 71 70 70 69 69 69 69 69 69 69 69 68 69 69 67 65 64 64 65 66 60 58 58 58 58 60 62 60 60 60 60 61 61 61 61 61 61
72 72 72 72 72 70 70 70 69 69 69 70 69 69 69 68 68 67 67 64 65 65 65 65 64 60 57 57 57 57 58 59 59 60 60 60 60 60 60 60 61 61
71 71 72 72 71 70 71 71 71 71 70 70 69 70 69 68 67 65 66 67 66 66 66 64 64 61 56 54 55 55 59 60 59 58 59 58 59 59 58 59 60 66
71 72 73 73 71 72 72 71 70 70 71 69 68 67 66 64 65 63 65 63 65 65 67 65 62 59 54 55 54 55 58 58 57 57 57 56 56 57 57 58 58 61
72 72 73 73 72 72 72 71 71 70 68 67 66 65 64 63 62 63 64 63 64 63 65 63 62 61 60 53 53 53 56 59 57 56 56 56 55 56 57 57 56 57

ECMWFNIL_sfc_temp_003.txt.gz
Temp
70 70 69 68 67 68 67 67 66 67 67 66 66 66 67 69 69 68 67 66 67 66 66 65 66 67 69 67 66 67 67 67 67 65 65 66 64 65 66 64 64 64
70 70 71 69 69 70 67 68 67 67 67 66 67 67 68 68 68 68 66 67 68 68 67 66 66 66 66 66 66 65 65 65 66 69 66 65 66 65 66 65 64 63
69 69 69 68 68 68 68 68 68 67 67 67 66 67 68 68 68 66 66 67 67 68 67 67 66 67 67 66 66 66 66 65 66 66 67 67 66 65 66 66 65 64
69 70 70 69 69 69 68 68 67 67 67 67 66 68 69 69 68 66 66 70 67 67 66 66 67 66 66 66 65 66 66 66 66 66 66 66 66 67 67 66 66 65
69 69 69 69 69 69 68 68 67 67 67 68 68 66 68 67 67 66 66 66 66 66 66 66 66 66 66 65 65 65 65 65 65 64 64 65 65 67 67 66 65 64
69 70 69 69 69 68 68 68 68 67 68 67 67 68 67 67 66 67 66 66 66 66 66 65 65 65 65 66 65 65 65 66 66 64 65 65 65 65 67 66 65 64
69 69 69 69 69 69 69 68 68 69 68 69 67 67 67 66 66 67 66 67 66 67 66 65 65 65 65 65 64 65 65 64 64 64 64 65 65 65 65 65 65 65
71 70 69 69 69 68 68 67 67 68 69 67 67 68 67 68 67 67 67 66 66 65 65 65 65 65 65 64 65 64 64 66 66 64 64 65 64 64 65 65 65 64
71 70 69 69 69 69 69 69 69 68 68 68 68 67 67 67 68 67 67 66 65 65 64 64 65 65 65 64 64 64 64 64 65 64 64 64 64 64 64 64 63 64
71 70 70 70 70 70 70 70 70 69 69 68 68 67 67 67 67 67 67 66 66 65 65 65 65 65 65 64 64 64 64 64 64 64 64 64 64 64 63 63 63 62
71 71 70 69 71 71 70 71 71 71 70 69 68 67 67 67 67 67 66 65 66 66 66 65 66 65 64 64 64 64 64 64 64 64 64 64 63 64 65 64 63 63
71 71 71 70 71 71 71 72 72 71 70 69 68 68 67 67 67 67 68 66 66 66 66 66 65 64 64 65 64 63 63 64 64 64 64 63 63 63 63 63 63 63
71 71 70 72 72 71 71 71 71 72 71 70 69 69 69 68 67 67 67 67 66 65 65 65 65 65 64 64 64 63 63 63 63 63 63 63 63 63 63 63 63 63
72 71 72 72 73 72 71 71 71 71 70 70 70 69 69 69 68 67 67 66 66 65 66 66 65 65 64 64 63 64 64 63 63 63 62 62 62 62 63 63 63 63
71 72 72 72 72 71 71 71 71 70 71 70 70 69 70 70 70 68 66 65 65 65 66 66 66 66 66 65 64 64 63 63 63 63 62 62 62 62 62 62 62 63
72 71 71 72 71 71 71 71 71 70 70 69 69 69 69 69 68 68 67 67 66 65 65 66 66 67 67 66 67 66 64 64 63 62 62 62 63 63 63 63 63 62
71 71 70 70 71 71 71 70 70 70 69 69 69 68 68 68 68 67 67 67 67 67 66 66 67 68 66 64 65 67 65 62 62 62 61 62 62 61 62 63 63 62
71 71 70 70 69 69 70 70 70 69 69 68 68 67 68 68 68 68 67 67 67 67 67 67 67 66 64 64 64 64 66 64 62 62 62 61 61 61 61 61 61 61
70 69 68 67 68 69 70 70 69 69 69 68 68 68 68 67 67 67 67 67 67 66 67 66 65 66 63 62 63 63 64 64 62 61 61 61 61 60 60 60 60 60
68 67 67 68 68 69 70 70 70 69 70 70 70 68 68 68 68 67 67 66 67 65 64 65 65 64 63 61 61 61 62 64 61 60 60 60 60 60 60 60 59 59
68 68 67 68 68 69 70 70 70 70 70 70 70 69 68 68 68 67 67 66 65 65 65 65 67 64 61 60 59 59 61 63 60 60 59 59 59 59 59 59 59 60
69 68 67 67 67 68 68 68 69 70 70 70 70 69 69 68 67 68 66 65 64 64 64 65 67 62 60 59 58 59 60 62 58 58 58 58 58 58 59 58 58 58
69 68 67 68 67 67 68 68 68 70 70 70 69 69 68 67 67 66 65 64 64 65 65 65 66 64 59 57 57 58 59 60 57 58 58 58 58 58 57 57 57 57
68 68 68 68 67 67 68 69 71 72 72 71 69 69 67 67 66 64 64 64 64 64 64 64 66 63 59 56 56 57 59 59 57 58 58 57 57 56 55 55 56 64
67 68 68 68 67 68 70 70 71 72 72 69 69 68 67 64 65 63 62 62 64 65 66 67 66 63 58 55 55 55 58 57 58 57 57 56 55 54 53 56 55 58
67 67 67 67 68 70 71 71 71 68 65 66 66 65 63 63 64 62 61 61 62 63 65 65 64 62 61 54 53 53 55 58 55 56 56 55 52 53 56 54 53 54

ECMWFNIL_sfc_temp_006.txt.gz
Temp
71 71 71 70 70 70 69 68 68 69 69 69 69 69 69 71 71 71 71 70 70 70 69 69 70 70 71 70 69 69 69 69 69 68 68 68 68 68 68 68 67 67
71 71 72 70 69 71 69 70 69 69 69 68 69 69 70 70 71 71 70 69 71 71 70 70 70 70 70 70 69 68 68 69 69 70 68 68 69 68 69 69 68 66
70 70 70 69 69 69 69 69 69 69 69 69 69 69 70 71 71 70 70 70 70 70 70 70 70 70 69 69 69 69 70 69 69 69 69 69 68 68 69 70 69 68
70 71 71 70 70 69 69 68 68 68 69 68 68 70 71 71 71 70 69 71 69 70 70 69 70 70 69 69 69 69 69 68 69 69 69 69 69 69 69 69 69 68
71 70 71 70 70 70 69 69 68 68 68 69 69 69 70 70 69 69 68 69 69 70 69 69 69 69 69 69 68 68 68 68 68 68 67 68 68 68 69 69 68 68
71 71 70 70 70 69 68 69 69 68 69 69 69 70 70 70 69 69 69 69 69 69 69 69 69 69 69 69 68 68 68 68 68 67 67 67 68 68 68 69 68 68
71 71 70 71 70 70 69 69 69 70 69 70 69 69 69 69 69 69 69 69 69 69 69 69 69 69 68 68 67 67 67 67 67 67 67 67 68 68 68 68 68 67
72 71 71 71 70 69 70 69 69 70 70 69 69 69 69 70 69 70 69 69 69 69 69 69 68 68 68 67 67 67 67 67 67 67 67 67 67 67 68 68 67 67
72 71 71 70 71 70 71 70 70 70 70 70 70 70 69 70 70 69 69 69 69 69 68 68 68 68 68 67 67 67 67 67 67 67 67 67 67 67 68 67 66 67
71 71 71 71 72 71 72 71 72 71 71 70 70 70 69 69 70 69 69 69 69 69 68 68 68 67 67 67 67 67 67 67 67 67 67 67 67 67 68 67 67 66
72 72 71 71 73 73 72 72 73 73 72 71 71 70 70 69 69 69 69 68 68 69 68 68 68 68 67 67 67 67 67 67 67 67 66 67 67 67 67 67 66 66
72 72 73 72 73 73 73 73 74 72 71 71 71 71 70 70 69 69 69 68 69 69 69 69 68 68 68 68 68 67 66 67 67 67 67 67 67 67 67 67 66 66
73 72 72 73 71 71 71 71 73 72 71 71 72 72 71 70 69 69 69 69 69 69 69 69 68 68 67 67 67 66 66 66 66 66 66 67 67 67 67 66 66 66
74 71 69 69 69 69 70 71 70 70 70 70 71 71 72 71 70 69 69 69 69 69 69 68 68 68 67 67 67 67 66 66 66 67 66 66 66 66 66 67 66 67
73 72 69 69 70 69 69 69 69 70 70 69 70 70 71 72 71 70 69 68 68 68 68 68 68 68 68 68 67 67 66 66 66 66 66 66 66 66 66 66 66 66
70 68 68 68 69 69 68 69 70 70 70 69 69 70 70 70 70 69 70 69 68 67 68 67 67 68 67 65 66 69 68 67 66 66 66 66 66 66 66 66 66 66
67 68 69 69 69 69 69 69 70 70 69 69 69 69 69 69 69 69 69 69 69 68 67 67 68 68 65 63 64 66 68 68 67 66 66 66 66 66 66 67 66 66
67 68 69 69 69 68 69 70 69 69 68 68 68 68 68 69 68 68 68 69 68 68 68 68 68 66 63 63 64 64 65 68 68 67 67 66 65 65 65 66 66 65
68 69 69 69 68 68 69 69 68 68 67 67 68 69 69 67 68 68 68 67 68 68 68 69 69 66 63 63 63 63 64 66 68 67 66 66 65 65 65 64 64 64
69 69 69 69 68 68 68 68 68 68 68 69 70 69 68 67 68 68 68 67 68 68 68 68 68 65 63 62 62 62 63 64 67 66 65 65 65 64 64 64 63 63
69 70 68 67 68 68 68 67 67 67 68 68 69 68 67 67 67 67 68 68 69 68 67 67 69 64 61 60 59 59 60 63 66 65 64 64 63 63 64 64 63 63
69 67 66 67 67 67 67 67 67 67 67 67 67 66 67 67 67 68 68 68 67 67 66 67 70 63 60 59 59 58 60 64 64 64 64 64 63 63 63 63 62 62
68 67 67 66 66 67 67 67 67 66 66 67 66 66 66 66 67 68 68 68 67 67 67 67 68 63 59 57 56 57 59 63 63 63 63 62 62 62 62 62 62 61
68 68 67 67 66 67 66 66 66 67 67 67 66 66 66 68 68 66 66 67 67 66 66 67 68 65 59 57 56 57 59 63 63 62 62 62 62 60 60 60 60 62
68 68 68 67 65 66 65 65 65 65 66 66 67 67 67 66 67 65 64 64 66 66 66 67 66 63 59 59 58 56 59 63 62 62 62 62 59 58 58 60 60 60
68 68 67 66 65 65 65 65 65 65 65 65 65 66 64 64 64 64 63 63 64 65 65 65 64 65 65 59 56 54 56 62 62 61 62 61 58 59 61 61 60 59

ECMWFNIL_sfc_temp_012.txt.gz
Temp
87 87 87 87 87 88 87 87 87 86 86 88 87 86 87 87 87 87 87 86 85 85 85 84 84 84 84 83 83 83 83 82 83 83 82 82 82 82 82 82 82 81
87 87 87 88 87 88 88 88 87 87 86 87 88 88 88 87 87 87 86 85 85 85 85 85 84 83 83 83 83 82 82 82 82 85 82 81 82 82 83 82 81 82
88 87 87 87 88 88 89 88 88 87 88 88 88 87 87 87 86 86 85 86 85 85 84 84 84 83 83 83 83 82 82 81 81 84 82 81 82 82 82 85 84 83
87 88 88 89 89 88 88 87 87 87 88 87 87 88 88 87 86 86 85 85 84 84 85 84 84 84 83 83 82 82 82 82 83 83 82 82 81 82 82 82 83 83
88 88 88 89 89 88 88 87 88 87 88 87 88 87 86 85 85 85 85 84 84 84 84 83 83 83 83 82 82 82 82 83 83 82 81 81 81 81 82 82 81 81
88 88 88 88 88 87 87 87 87 87 87 86 84 86 86 85 85 85 85 85 85 85 84 84 83 83 83 82 82 81 83 83 84 82 81 80 81 83 84 83 81 80
88 88 88 89 88 88 87 87 87 86 87 86 84 84 85 84 83 83 84 84 85 84 84 83 82 82 83 82 81 81 81 82 82 82 81 81 81 81 83 82 81 80
89 89 89 87 86 87 87 87 87 86 86 85 85 85 85 85 82 83 83 83 84 83 83 83 82 81 84 83 81 81 81 82 82 80 80 80 81 80 81 81 81 80
89 88 87 86 87 87 89 89 88 87 87 86 86 87 85 85 84 84 83 82 82 80 80 81 80 81 81 82 81 81 81 81 82 81 80 79 80 80 81 81 81 80
88 87 88 90 89 88 90 91 91 89 87 86 86 87 84 83 83 83 82 81 80 80 80 80 80 80 80 81 81 81 80 80 80 80 80 80 80 80 81 81 81 80
89 89 88 87 89 91 91 92 92 90 86 84 83 83 84 82 81 81 80 80 79 79 79 79 79 79 79 81 81 81 80 80 79 79 80 80 80 80 80 80 80 80
88 89 88 87 89 91 91 89 88 84 82 80 84 84 82 81 79 80 80 79 79 80 79 79 78 78 79 80 81 81 79 79 79 79 80 80 81 81 81 81 80 80
90 88 87 89 86 85 81 80 80 80 81 82 82 81 81 80 81 79 80 79 79 80 79 79 78 78 77 77 78 79 78 77 78 79 79 79 80 81 83 82 81 80
90 88 86 87 86 79 75 75 77 79 79 79 79 80 81 80 80 78 79 80 79 79 78 78 77 77 76 77 77 78 77 77 77 77 79 79 80 81 82 82 82 82
89 89 87 85 80 78 74 75 76 77 78 78 78 79 79 80 80 80 79 78 79 78 77 77 76 75 76 76 76 77 77 76 77 78 78 79 80 81 81 81 81 82
87 84 84 82 80 77 74 72 74 76 77 77 78 80 80 79 79 79 80 79 77 77 78 77 75 74 71 68 71 75 76 76 77 77 78 79 79 79 80 81 82 83
84 83 83 81 79 78 77 75 75 77 77 77 78 80 79 79 80 80 81 80 79 79 78 77 75 74 66 64 65 66 72 74 75 76 77 78 79 78 78 78 80 82
85 83 82 80 77 77 77 78 79 79 79 79 79 79 79 80 80 79 80 80 80 81 80 77 74 66 63 63 64 63 65 72 74 75 76 77 78 79 79 79 79 81
84 83 82 80 77 77 78 79 78 78 79 79 79 79 78 77 78 77 77 79 79 78 78 77 75 65 63 62 63 63 63 66 72 75 76 77 77 78 78 79 79 80
84 82 81 80 79 78 78 78 78 79 80 81 80 78 77 77 78 77 76 77 77 76 75 75 75 64 61 61 61 61 62 64 72 74 75 75 76 77 79 78 78 78
84 83 81 81 79 79 78 78 78 79 80 81 80 78 77 76 77 75 75 75 75 75 74 74 76 62 60 60 59 59 60 63 69 70 71 73 75 76 77 76 77 76
84 83 83 82 80 79 78 77 78 78 78 78 78 78 78 77 75 75 74 74 74 74 73 72 75 61 60 59 58 58 60 66 67 67 69 71 74 75 76 74 75 72
85 83 83 82 81 79 78 78 78 78 77 77 75 75 75 75 75 74 74 74 73 74 73 72 73 64 58 58 58 58 62 67 68 69 70 71 72 73 71 75 75 75
84 84 84 83 81 80 78 78 78 77 76 76 74 72 72 74 73 74 74 75 74 74 74 73 75 66 57 57 56 57 62 67 68 68 68 68 69 70 73 75 74 73
84 84 84 82 81 80 79 78 77 74 74 73 73 71 69 68 68 69 70 74 77 75 70 74 77 69 57 58 57 57 62 68 67 67 66 67 67 69 71 71 71 71
85 83 83 81 80 80 79 79 77 76 74 73 74 73 71 70 70 70 70 71 74 75 74 75 75 74 64 56 56 54 59 67 67 66 65 66 67 67 68 70 71 74

ECMWFNIL_sfc_temp_015.txt.gz
Temp
89 89 89 88 88 89 89 88 89 88 87 88 87 87 87 88 88 89 89 88 87 86 87 87 86 85 86 85 84 84 84 84 84 85 83 84 84 84 84 84 84 83
89 89 89 89 88 89 89 90 89 88 87 88 88 88 88 88 89 89 88 88 88 87 87 87 85 85 84 85 84 83 82 82 82 85 83 83 83 84 84 84 83 84
90 89 89 88 89 89 91 90 90 89 89 88 89 89 88 89 89 88 88 88 87 88 86 86 85 84 84 84 84 83 82 81 81 84 83 82 83 83 84 87 85 83
89 90 90 90 90 90 90 90 90 89 90 89 90 91 90 90 88 89 88 87 87 86 86 86 85 85 84 83 83 82 83 82 83 83 82 82 82 83 83 83 84 84
90 90 90 90 91 90 90 89 90 90 90 90 91 90 88 87 86 87 87 86 85 85 84 84 84 85 83 83 83 82 82 82 82 82 81 81 81 82 83 82 82 81
90 90 90 90 90 90 90 90 89 90 90 92 90 90 88 88 87 87 86 86 86 85 84 84 83 83 83 82 82 81 81 82 83 82 81 81 82 83 84 82 80 80
90 90 90 91 91 90 89 89 89 89 90 91 89 88 88 87 86 86 85 85 85 83 84 82 82 81 81 80 80 80 80 81 81 82 80 81 81 81 82 81 80 80
91 92 91 91 90 90 89 90 90 89 89 88 88 88 88 88 86 86 84 83 84 83 82 83 81 81 84 82 79 78 79 81 81 80 79 79 80 79 79 80 80 79
92 91 91 90 91 91 92 92 90 90 88 88 88 90 87 87 85 85 83 82 82 82 82 82 81 81 82 80 80 79 79 80 81 80 79 79 79 78 78 79 79 79
91 92 93 94 93 93 92 92 92 91 89 88 88 89 86 86 85 84 83 82 82 81 81 81 81 82 81 81 81 80 79 79 80 80 80 80 79 78 78 78 78 78
93 93 93 93 93 93 94 95 94 93 90 89 89 88 87 85 84 84 82 82 81 81 81 80 81 81 81 82 82 82 81 81 80 80 80 79 79 78 79 78 78 78
92 94 93 93 93 94 94 95 95 93 91 90 90 90 87 86 84 83 83 81 81 81 81 81 81 81 81 81 82 82 81 81 80 79 79 78 79 79 79 78 76 77
94 92 92 94 92 93 93 94 94 94 94 91 91 91 89 87 86 84 83 83 82 82 82 81 81 82 81 80 81 81 80 80 80 78 77 77 77 78 79 78 78 78
94 93 92 91 92 90 91 92 92 92 92 90 90 90 90 89 88 85 85 85 83 83 82 82 81 82 81 81 80 81 81 80 78 78 77 76 76 76 76 77 77 79
92 92 92 91 90 89 88 88 90 91 90 88 87 88 89 90 89 87 85 83 84 83 82 83 82 81 81 81 80 81 81 80 79 77 76 75 75 75 75 76 76 78
92 91 90 89 88 87 87 88 90 90 89 87 87 88 88 88 87 86 87 85 83 83 83 82 82 82 76 70 74 80 80 79 77 75 75 74 73 72 74 75 76 79
90 89 88 88 88 87 86 86 86 88 87 86 86 86 86 85 85 86 87 86 84 84 83 82 82 81 67 67 69 72 78 78 76 76 75 74 73 73 73 73 75 77
91 88 87 86 84 84 84 85 86 87 86 85 85 85 84 85 84 84 84 85 85 85 84 82 82 68 64 67 67 67 71 76 76 75 76 75 74 74 74 74 74 76
89 87 87 85 83 84 84 85 84 85 85 84 84 84 84 83 83 83 83 84 84 83 82 82 83 64 65 64 64 64 65 71 74 74 74 73 73 74 74 73 74 74
86 86 86 85 84 83 83 83 84 84 85 86 85 84 82 82 82 83 82 82 82 82 80 80 80 63 63 62 62 62 62 67 75 74 74 74 74 75 74 73 73 72
86 85 85 85 85 85 83 83 83 84 84 85 85 83 82 80 80 80 80 80 81 80 79 79 76 61 61 61 61 61 61 67 73 72 72 73 73 73 73 73 72 69
87 86 85 85 86 85 83 83 83 83 83 83 83 83 83 82 80 80 79 80 80 78 77 78 72 59 60 60 58 59 61 68 71 70 69 69 70 71 72 72 70 69
87 85 85 85 85 84 83 83 82 83 83 83 82 82 82 82 81 80 79 79 78 76 75 75 71 62 59 58 58 58 62 70 70 70 69 69 70 71 72 72 70 70
87 86 85 85 84 83 82 82 83 83 83 83 82 81 81 83 82 80 80 78 76 76 76 74 71 63 58 57 56 57 65 71 70 70 69 70 71 71 71 69 71 71
88 87 86 85 84 83 82 81 81 81 82 82 81 79 79 78 77 75 72 72 73 74 69 72 73 65 56 57 56 56 66 72 70 71 70 70 70 69 70 70 69 69
87 86 86 85 84 84 84 83 83 82 82 81 79 79 78 77 75 74 72 71 73 73 72 74 73 72 64 55 55 55 60 72 73 72 72 72 72 70 69 68 68 68

ECMWFNIL_sfc_temp_018.txt.gz
Temp
86 85 85 85 85 85 85 85 85 85 84 84 83 83 83 83 85 84 84 83 83 83 83 82 82 81 82 81 80 81 79 80 80 79 79 79 78 79 79 80 79 78
86 86 85 86 85 85 85 86 85 84 84 84 84 84 84 84 85 85 84 83 83 83 83 83 82 81 80 80 80 79 78 80 79 82 78 79 78 79 80 80 80 80
86 86 86 86 86 86 88 87 86 86 85 86 85 85 85 86 85 85 84 84 82 84 82 82 82 80 80 80 79 79 79 78 78 81 79 78 78 78 79 82 80 80
86 86 87 87 87 86 87 86 86 86 86 85 85 86 86 86 85 85 84 84 82 82 83 83 82 81 80 80 79 78 79 78 78 79 79 78 78 79 79 79 80 80
86 86 87 87 87 87 87 86 87 87 87 86 87 86 84 84 84 85 84 84 82 83 82 82 82 81 80 79 79 77 78 78 78 78 77 77 78 78 79 79 78 78
87 87 86 87 87 86 86 87 87 87 87 87 85 87 86 85 84 84 84 84 84 84 83 83 82 82 81 79 79 78 78 79 79 78 77 77 78 79 80 78 77 76
87 87 87 88 88 87 86 86 87 86 87 87 86 85 86 85 84 83 83 83 84 82 83 81 80 80 80 79 77 77 77 77 78 77 77 76 77 77 79 78 77 76
88 89 88 87 88 87 87 87 87 87 86 86 86 86 86 86 84 85 84 83 84 82 81 81 80 79 81 79 77 77 77 79 78 77 76 76 76 76 76 78 77 76
89 88 88 87 88 88 89 89 89 88 87 86 87 88 86 86 85 85 83 82 82 81 80 80 79 79 79 79 77 77 76 77 78 78 77 77 76 76 77 77 76 75
88 88 89 90 90 89 90 90 90 89 88 88 88 89 86 85 85 84 83 81 81 80 80 79 79 79 79 79 77 77 76 76 77 77 77 77 77 77 77 76 75 74
90 90 89 89 90 90 90 91 91 91 89 89 88 88 87 86 84 84 83 81 81 80 79 79 80 79 78 79 78 78 77 77 77 77 77 77 77 77 77 75 74 74
89 90 90 89 90 91 91 91 92 91 90 89 89 88 88 87 85 84 83 81 81 81 80 79 79 79 78 79 79 79 77 78 78 78 77 77 77 77 76 76 75 74
90 89 89 90 89 90 91 91 92 93 92 89 89 89 88 88 86 84 83 82 81 81 81 80 79 79 78 78 78 78 77 77 78 77 77 77 77 77 77 76 75 74
90 89 88 89 90 88 89 90 91 91 89 89 88 88 89 89 88 85 84 83 82 81 80 80 79 79 78 78 78 78 78 77 77 77 77 77 76 77 77 77 75 74
89 89 89 88 88 87 87 88 89 88 89 88 87 88 89 90 89 87 84 82 82 81 80 81 80 79 79 79 78 78 78 78 77 77 77 76 75 76 76 75 74 75
88 88 88 88 87 87 86 87 88 88 89 88 86 87 87 87 87 86 85 83 81 81 81 80 80 80 74 69 73 78 77 78 77 77 76 75 74 74 74 74 74 75
88 88 88 87 87 87 86 86 86 88 87 86 86 86 86 85 86 86 86 84 82 81 81 80 80 79 68 66 69 72 76 77 76 76 75 74 74 73 72 72 73 74
88 88 87 87 87 87 86 86 87 86 86 86 85 85 84 86 85 85 84 84 83 82 81 80 80 71 65 66 68 69 72 77 77 76 75 74 74 73 72 73 72 73
88 88 87 87 87 86 86 85 85 85 85 85 84 85 84 83 83 83 83 83 82 81 80 81 81 66 63 64 66 67 68 75 76 75 74 73 73 72 71 71 71 70
88 88 87 86 86 85 85 84 84 84 85 86 85 84 82 82 83 82 81 81 81 80 79 80 80 62 63 63 64 64 66 72 75 74 73 73 72 71 71 71 71 70
88 86 85 84 84 84 83 83 83 83 84 84 84 83 81 81 81 81 80 80 80 80 79 78 74 59 61 61 61 63 65 71 72 71 70 71 71 71 71 71 71 70
87 86 84 83 83 83 82 82 82 82 82 83 83 83 83 82 81 82 81 80 80 79 76 72 66 59 60 60 60 62 65 72 72 70 70 70 70 71 71 71 71 70
86 85 84 83 83 82 82 82 81 81 82 83 82 82 82 81 81 80 80 80 78 76 74 68 64 60 59 58 59 61 65 71 70 70 68 69 69 70 71 72 71 71
85 85 84 84 83 83 82 82 82 82 82 82 81 80 80 81 81 80 80 79 77 76 74 69 67 60 56 56 57 60 65 70 69 69 68 68 68 69 71 71 72 73
85 85 84 84 83 83 83 82 82 81 82 81 81 81 78 76 77 77 76 76 76 75 68 68 66 60 55 58 58 58 66 70 69 68 68 68 68 69 71 71 71 72
85 84 84 84 84 83 82 81 81 81 80 80 79 79 78 76 75 75 73 73 72 70 69 69 66 64 60 56 56 57 62 71 70 68 68 69 70 70 69 70 70 70

ECMWFNIL_sfc_temp_021.txt.gz
Temp
81 81 81 81 80 80 79 79 80 79 78 79 78 78 78 79 80 80 79 79 79 77 77 76 76 76 77 74 74 75 74 74 74 74 73 73 72 73 73 72 71 71
81 81 81 81 80 80 80 81 80 80 79 79 79 79 79 79 80 79 79 79 79 77 77 77 76 75 75 74 74 74 73 74 74 75 74 73 73 73 74 73 73 72
81 81 81 80 80 81 81 81 81 80 80 80 80 80 79 80 80 79 79 79 79 78 77 77 76 75 75 74 73 74 74 72 73 75 74 73 73 74 74 75 72 72
81 82 82 82 82 81 82 81 80 80 80 79 80 81 81 81 80 78 78 80 78 78 77 77 76 75 75 74 74 73 73 73 72 73 73 73 73 73 73 71 72 72
82 82 82 82 82 82 82 81 81 81 81 81 81 81 80 80 79 78 78 78 78 78 77 77 76 75 75 74 74 73 73 72 72 72 72 72 72 73 73 73 71 70
82 82 82 82 82 82 82 81 82 82 82 81 81 81 81 80 80 79 78 78 78 78 78 77 76 76 76 74 73 73 73 73 73 72 71 71 72 73 74 72 71 70
82 82 82 83 83 82 82 82 82 82 82 82 81 81 81 80 79 80 79 78 78 78 78 77 75 75 76 75 73 72 72 73 72 72 71 70 71 72 73 72 71 71
82 83 83 83 82 82 82 82 82 82 82 82 81 81 81 81 80 80 80 79 78 78 77 77 76 75 76 75 74 73 72 73 73 72 71 71 71 70 71 72 72 71
83 83 83 82 82 82 83 83 83 82 82 82 82 82 81 81 80 80 79 79 78 77 77 77 76 76 76 75 74 73 73 73 73 73 72 71 71 71 71 70 70 70
83 83 83 83 83 83 83 84 84 83 83 82 82 82 81 81 81 80 80 79 79 78 77 76 76 76 75 75 74 74 73 73 73 72 73 73 72 72 72 70 70 69
83 83 83 83 83 84 84 85 85 85 84 83 82 82 82 81 80 80 79 78 78 78 77 76 76 76 75 75 75 74 74 73 73 72 72 73 73 72 74 71 71 70
83 84 83 83 84 84 84 85 85 84 84 83 83 82 82 82 80 80 80 78 78 78 78 77 76 76 76 75 75 75 74 74 73 73 73 72 73 73 73 72 72 70
84 84 84 84 84 84 85 85 85 86 85 84 84 84 83 82 81 80 80 79 78 78 77 77 76 76 75 75 74 74 73 73 73 73 73 73 73 73 73 72 71 70
85 84 84 84 85 84 84 84 85 85 84 84 84 83 84 83 82 80 80 80 79 78 77 77 76 75 75 74 74 74 74 73 73 73 73 73 73 72 72 72 70 71
84 85 84 84 84 83 83 83 84 84 84 83 83 83 84 84 83 81 80 78 78 77 76 76 76 75 75 75 74 73 74 73 73 73 73 72 72 71 71 71 70 71
84 84 84 84 83 83 82 83 83 84 84 83 82 83 83 83 82 81 81 79 77 77 76 76 76 76 72 67 70 74 74 74 73 73 73 73 71 70 70 70 71 72
84 83 83 83 83 83 82 82 82 83 82 81 81 81 82 81 81 80 81 80 78 77 76 76 76 76 67 65 68 70 74 73 73 73 73 72 70 70 68 69 69 70
84 83 83 83 83 82 82 82 82 82 81 79 79 80 80 80 81 79 79 79 78 78 77 77 76 69 64 65 67 67 70 74 74 73 72 70 70 69 68 67 68 69
84 83 83 82 82 82 82 82 81 80 79 79 79 80 80 80 79 78 78 77 78 76 76 77 77 67 64 64 66 66 68 71 73 73 70 69 69 69 68 68 69 69
84 83 83 83 83 82 82 81 81 80 80 80 79 79 79 79 79 77 77 76 76 76 75 76 77 65 63 63 64 65 66 70 72 71 70 69 69 69 69 69 70 69
84 83 83 83 82 82 81 81 80 80 79 79 78 78 77 77 77 76 76 76 76 77 76 75 77 62 61 62 62 63 64 70 71 71 69 69 69 69 69 70 70 69
84 83 83 82 82 81 81 80 80 80 79 78 77 77 77 77 76 77 76 76 76 76 75 73 68 58 61 60 60 61 65 69 69 69 69 68 68 69 70 70 69 69
84 84 82 82 81 80 79 79 79 78 78 77 77 76 76 76 76 76 76 75 74 73 71 67 65 60 59 59 59 60 64 68 68 68 67 66 67 69 69 69 69 68
84 83 81 81 80 79 78 78 79 78 78 78 77 75 75 75 75 74 74 74 73 72 70 67 66 60 57 56 58 60 65 67 67 67 66 66 67 68 68 68 70 73
83 82 81 80 79 79 78 77 77 77 77 77 76 75 73 72 73 73 71 71 72 72 66 67 65 59 54 56 57 60 65 67 67 66 65 65 66 66 67 68 68 71
82 81 80 80 79 78 78 77 77 77 76 75 73 72 71 70 70 70 69 68 69 69 68 66 63 61 58 55 57 58 62 67 66 65 65 65 66 66 66 66 66 66

ECMWFNIL_sfc_temp_024.txt.gz
Temp
80 80 79 79 79 79 79 78 77 77 77 77 76 76 76 77 77 77 77 77 76 76 74 74 75 74 73 73 73 72 72 71 72 71 71 70 69 70 70 69 68 68
80 80 80 79 78 78 79 79 78 78 77 77 78 77 77 77 77 77 77 76 77 76 75 75 75 74 72 72 72 72 71 71 71 72 71 70 70 70 71 69 69 68
80 79 79 78 78 78 79 79 79 78 78 78 78 78 77 78 77 77 77 77 76 76 75 75 74 74 73 72 72 72 72 70 71 72 71 70 70 70 71 71 69 68
79 80 80 79 79 79 79 79 78 78 78 77 77 78 78 78 78 77 77 78 76 76 76 75 75 74 73 72 71 72 72 71 72 71 71 71 70 70 70 69 70 69
80 80 80 80 80 80 79 79 79 79 78 78 78 78 78 77 77 77 76 77 76 76 76 75 74 74 73 72 72 71 71 71 71 70 70 70 70 70 70 70 69 69
80 80 80 80 80 79 79 79 79 79 79 78 78 79 78 78 77 77 77 77 77 76 76 76 75 74 73 72 72 72 71 71 71 70 70 70 70 70 71 70 69 69
80 80 80 80 80 80 79 79 79 79 79 80 79 78 79 78 77 77 77 77 77 76 76 75 75 74 74 73 72 71 71 71 70 70 70 70 69 69 70 70 69 69
80 81 80 80 80 80 79 80 80 79 80 79 79 79 79 79 78 78 77 77 77 76 75 75 75 74 74 74 72 71 71 72 71 70 69 69 69 69 69 70 70 68
81 80 80 80 80 80 80 80 80 80 80 79 79 79 79 79 78 78 77 77 76 76 75 75 75 74 74 74 73 72 72 71 72 71 70 69 69 70 70 70 69 69
80 80 80 80 80 80 80 81 81 81 80 80 79 80 79 79 79 78 77 76 76 76 75 75 75 75 74 74 74 73 72 72 71 71 71 71 71 70 70 70 69 68
80 81 80 80 80 81 81 82 82 82 81 80 80 79 79 79 78 78 77 76 76 76 75 75 75 74 74 74 74 74 73 73 72 71 71 71 72 71 72 70 70 69
80 81 80 80 81 81 81 82 82 82 81 81 80 80 79 79 78 78 78 77 77 76 76 76 75 75 74 74 74 74 73 73 72 72 71 72 71 70 70 70 69 68
81 80 81 81 81 81 82 81 82 82 82 81 81 81 80 79 79 78 78 78 77 77 76 76 75 75 74 74 73 73 72 72 72 71 71 71 70 71 71 71 70 68
81 81 81 81 81 81 81 81 81 81 81 81 81 80 81 80 79 78 78 78 77 77 77 76 75 74 74 73 73 73 72 72 72 72 72 71 71 71 71 71 70 69
81 81 81 81 81 80 80 80 81 81 81 81 80 80 81 81 80 79 78 77 77 77 76 76 75 74 74 74 73 72 73 72 72 72 72 71 71 70 69 69 69 70
81 81 81 81 80 80 80 80 81 81 81 80 80 80 80 80 80 79 79 77 76 76 75 75 75 75 71 66 69 73 73 73 72 72 72 71 71 69 68 68 70 71
81 81 81 80 80 80 80 80 80 80 80 80 79 79 79 79 79 78 78 78 77 76 75 75 75 75 66 64 66 68 72 73 73 72 71 71 71 69 68 68 69 70
81 80 80 80 80 80 80 80 80 80 79 79 79 79 79 79 79 78 78 78 77 77 76 76 75 69 64 64 65 65 68 74 74 73 71 71 70 69 69 68 67 68
81 80 80 80 80 80 80 80 79 79 79 79 79 79 79 78 78 78 77 78 77 76 76 76 76 67 63 62 64 65 66 71 74 72 71 70 69 68 67 66 67 68
81 81 80 80 80 80 80 79 79 79 79 80 79 79 78 78 78 78 78 77 77 77 76 77 76 65 62 61 63 64 65 68 73 72 71 71 69 69 68 67 68 69
81 80 80 80 80 80 79 79 79 79 79 79 79 78 78 78 78 78 78 77 77 77 76 75 76 61 61 60 61 62 64 67 73 72 70 69 69 69 69 69 70 70
81 81 80 80 80 80 79 79 79 79 78 78 78 78 79 79 78 79 78 77 77 76 75 74 71 59 60 60 60 61 63 68 70 70 69 69 69 69 69 69 69 69
82 81 80 80 80 79 79 79 79 78 79 78 78 78 78 78 78 78 77 77 75 74 73 71 67 60 59 58 59 60 61 68 69 69 68 68 69 69 68 68 69 70
82 82 81 80 80 79 79 79 80 79 79 78 78 77 77 78 77 76 75 75 74 73 73 70 69 61 57 57 57 58 63 68 68 68 67 67 67 67 67 67 69 72
83 82 81 81 80 80 80 79 79 79 79 78 79 78 77 75 75 74 72 72 73 72 67 70 70 63 55 57 57 57 64 69 68 67 66 66 66 66 67 67 68 70
83 82 82 81 81 80 80 80 80 79 77 77 76 76 74 73 73 72 72 70 70 70 70 71 68 64 59 55 55 56 61 68 67 66 65 65 66 66 66 66 67 67

ECMWFNIL_sfc_temp_027.txt.gz
Temp
79 78 78 77 77 77 76 76 76 76 76 76 75 75 75 76 76 75 75 75 74 74 74 73 73 72 72 71 71 70 70 70 71 69 69 69 67 68 68 67 65 66
78 79 78 78 77 77 77 77 76 76 76 76 77 76 76 75 76 76 75 75 75 74 74 74 73 72 71 71 70 70 69 70 70 71 69 68 68 68 69 67 67 66
79 78 78 77 77 77 78 77 77 77 77 77 77 76 76 76 75 75 76 75 74 74 74 74 74 73 71 71 70 70 70 69 69 70 69 69 68 68 69 69 67 66
78 79 79 78 78 78 78 77 77 77 77 76 76 77 77 76 76 75 75 76 75 74 74 74 74 74 72 71 70 70 70 70 71 70 69 69 69 69 69 68 68 67
78 78 79 79 79 78 78 77 77 77 77 77 77 76 76 75 75 75 75 75 75 74 74 73 73 73 72 71 70 70 70 70 70 69 69 68 69 69 69 68 67 67
79 79 79 79 79 78 78 78 78 78 77 77 77 77 76 76 76 75 75 75 75 75 74 74 73 73 72 72 70 70 70 70 70 69 69 69 69 69 70 68 67 67
79 79 78 79 79 78 78 78 78 78 78 78 77 77 77 76 75 75 75 75 75 75 75 74 73 73 72 72 70 70 70 70 69 69 69 69 69 68 68 68 67 67
79 79 79 79 78 78 78 78 78 78 78 77 77 77 77 77 76 76 76 75 75 75 74 74 74 73 73 72 71 70 69 70 70 69 69 69 68 68 68 68 67 67
79 79 79 78 78 78 78 79 78 78 78 77 77 77 77 77 76 76 76 75 75 75 74 74 74 73 73 72 71 71 70 70 70 69 69 69 68 69 69 67 67 67
79 79 79 79 78 78 78 79 79 79 79 78 78 78 77 77 77 76 76 75 75 74 74 74 74 74 73 72 72 72 71 71 70 70 70 70 70 69 68 68 68 67
79 79 78 78 78 79 79 79 80 80 79 78 78 78 77 77 76 76 75 75 75 75 74 74 74 74 73 73 73 73 72 72 71 70 70 70 70 69 70 68 68 69
79 79 79 78 79 79 79 80 80 79 79 79 78 78 78 77 77 76 76 75 75 75 75 74 74 74 73 73 73 73 73 73 72 71 71 70 70 69 69 68 69 69
79 79 79 79 79 79 80 79 80 80 80 79 79 79 78 77 77 76 76 76 75 75 75 74 74 74 73 73 73 73 72 72 72 71 71 70 70 69 69 69 69 69
80 80 79 79 79 79 79 79 79 79 79 79 79 78 79 78 77 77 77 76 76 75 75 75 74 74 73 73 73 73 72 72 72 71 71 70 70 70 70 70 70 69
80 80 80 79 79 78 78 78 78 79 79 79 78 78 79 79 79 78 76 75 75 75 74 75 74 74 74 74 73 72 72 72 71 71 71 70 70 70 69 70 69 69
80 80 79 79 78 78 78 78 78 78 78 78 78 78 78 78 78 77 77 76 75 74 74 74 74 75 71 65 68 73 72 72 71 71 71 71 70 69 69 69 69 70
79 79 79 78 78 78 78 78 78 78 78 77 77 77 77 77 77 77 77 77 76 75 74 74 75 74 66 63 65 67 71 71 71 71 71 71 71 70 68 68 68 69
79 79 78 78 78 78 78 78 78 77 77 77 77 77 77 77 77 76 76 76 76 76 75 75 75 68 64 63 64 64 67 72 72 72 72 71 71 70 69 67 67 67
79 79 78 78 78 78 78 78 77 77 77 76 76 77 77 76 76 76 76 76 76 75 75 76 75 67 63 62 63 63 65 69 73 72 71 71 69 68 66 66 66 67
79 79 78 78 78 78 78 77 77 77 77 77 77 76 76 76 76 76 76 75 76 75 75 76 75 66 62 61 61 62 64 67 73 72 72 71 69 69 68 67 67 68
79 79 78 78 78 78 77 77 77 77 77 77 77 77 76 76 76 75 76 76 76 76 75 75 76 65 61 60 60 60 63 65 72 73 71 70 69 68 68 68 68 69
79 79 79 78 78 78 77 77 77 77 76 77 77 77 77 77 76 77 76 75 76 76 75 74 76 64 60 60 59 60 62 67 69 70 70 69 68 68 68 68 68 68
80 79 78 78 78 77 77 77 77 76 77 77 76 77 76 76 76 76 76 76 76 75 75 74 74 64 59 58 58 59 61 67 68 69 69 68 69 68 67 67 68 68
80 80 79 78 78 77 77 77 78 78 78 78 77 76 76 76 77 76 76 77 76 75 75 74 75 63 56 57 57 57 61 68 68 68 68 68 67 67 66 66 67 72
81 80 79 79 78 78 78 78 77 77 78 78 78 77 77 77 77 76 75 75 76 76 70 73 74 64 55 57 56 56 62 68 68 68 67 66 66 65 65 65 67 70
81 80 80 79 79 79 79 79 78 78 77 77 77 78 77 77 76 76 75 74 74 75 74 74 72 68 60 55 55 55 59 68 68 67 66 65 65 65 64 64 66 67

ECMWFNIL_sfc_temp_030.txt.gz
Temp
78 78 77 77 77 77 76 76 76 76 76 76 76 76 76 77 77 77 77 77 77 76 76 75 75 74 74 73 73 72 72 72 72 72 71 71 71 71 71 71 70 70
78 78 78 78 77 77 77 77 76 76 76 76 77 77 77 77 77 77 77 76 77 77 76 75 75 74 73 73 72 72 71 72 71 73 71 70 71 71 72 71 71 70
78 78 78 77 78 77 78 77 77 77 77 77 77 77 77 77 77 77 77 77 76 77 76 75 74 74 73 73 72 72 72 71 71 72 71 70 71 70 71 73 71 70
78 78 78 79 78 78 78 77 77 77 77 77 77 78 78 77 77 76 76 77 76 76 76 75 75 74 73 73 72 72 72 71 72 72 71 71 71 71 71 71 71 70
78 78 79 79 79 78 78 77 77 77 77 77 78 77 77 76 76 76 76 76 76 76 75 75 75 75 73 72 72 71 71 72 71 71 71 71 71 71 71 71 70 70
78 78 78 78 78 78 77 78 78 78 78 78 77 78 77 77 76 76 76 76 77 77 76 75 75 75 74 73 72 72 72 72 72 71 70 70 71 71 72 71 70 70
78 78 78 79 79 78 78 78 78 78 78 78 77 77 77 77 76 76 76 76 76 76 76 75 74 74 74 73 72 71 71 72 71 71 70 70 71 70 71 71 70 70
79 79 79 79 79 78 78 78 78 78 78 77 77 77 77 77 76 77 76 76 76 75 75 75 74 74 74 74 72 71 71 72 71 71 70 71 70 70 70 71 71 70
79 79 79 78 79 79 79 79 79 79 78 78 78 78 77 77 77 77 76 76 76 75 75 75 74 74 74 73 73 72 72 72 72 71 71 71 70 70 71 70 70 70
79 79 79 79 79 79 79 80 80 80 79 78 78 78 77 77 77 77 76 75 75 75 75 75 74 74 74 74 73 73 73 72 72 72 72 72 72 71 71 70 70 70
79 80 79 79 79 80 80 80 81 81 79 79 78 78 78 77 77 77 76 75 75 75 75 75 75 75 74 74 74 74 73 73 73 72 72 72 72 72 72 71 71 71
79 80 79 79 79 80 80 80 81 80 80 79 79 78 78 78 77 76 76 75 76 76 76 75 75 75 74 74 74 74 74 74 73 73 72 72 72 72 72 72 71 71
80 79 79 80 79 80 80 80 80 81 80 79 79 79 78 78 77 77 77 76 76 76 76 75 75 75 75 74 74 74 73 73 73 73 73 72 72 73 73 72 72 72
80 80 79 79 80 79 79 79 80 80 79 79 79 79 79 78 78 77 77 77 77 76 76 76 75 75 75 75 74 74 74 73 73 73 73 72 72 72 73 73 72 73
80 80 80 79 79 78 78 78 79 79 79 79 78 79 79 80 79 78 77 76 76 76 76 76 75 75 75 75 74 74 74 74 73 73 73 72 72 72 72 72 72 72
79 79 79 79 78 77 77 78 79 79 79 78 78 78 78 78 78 78 78 77 76 76 76 75 75 76 71 65 68 74 74 74 73 73 73 73 72 72 72 72 72 72
79 79 79 78 78 78 78 77 78 78 78 77 77 78 78 77 78 77 78 78 77 76 75 75 76 75 66 63 65 67 73 74 73 73 73 73 73 72 71 71 72 72
79 78 78 78 78 77 77 78 78 78 77 77 77 77 77 78 77 77 77 77 77 77 76 76 76 68 64 63 64 64 67 74 74 73 73 73 73 72 72 71 70 70
78 78 78 78 78 78 78 77 77 77 77 77 77 77 77 76 76 77 77 77 77 76 76 76 77 68 63 62 63 63 64 69 75 74 73 73 72 72 71 70 69 68
78 78 78 78 78 78 78 77 77 77 77 78 78 77 77 76 77 77 77 76 76 76 76 77 76 67 62 61 61 62 63 67 75 74 73 73 73 72 72 70 69 67
78 78 78 78 78 78 77 77 77 77 77 77 78 77 77 76 76 76 76 76 77 77 76 76 77 65 60 60 60 60 62 64 74 74 73 73 72 72 72 71 70 70
79 78 78 78 78 77 77 77 77 77 77 77 77 77 78 78 77 77 77 76 77 77 76 76 78 63 60 59 59 59 61 67 72 73 72 72 72 72 71 70 70 70
79 78 78 78 77 77 77 77 77 77 77 78 77 77 77 76 77 77 77 77 76 76 76 76 77 65 58 58 58 58 60 69 70 71 71 71 71 71 70 70 69 70
79 79 78 78 77 77 77 77 78 78 78 78 77 77 76 77 77 77 77 77 77 76 77 76 77 66 57 57 57 57 61 70 69 70 70 70 70 70 70 69 70 71
79 79 79 78 78 78 78 77 77 77 78 78 78 78 77 77 77 77 77 77 78 77 70 74 77 68 56 57 56 56 62 71 70 69 69 69 69 68 68 68 69 70
80 79 79 79 78 78 78 78 78 78 78 78 78 78 78 78 77 77 76 76 77 77 76 76 76 74 62 56 56 55 59 70 70 68 68 68 69 69 67 67 68 69

ECMWFNIL_sfc_temp_033.txt.gz
Temp
83 83 82 82 83 83 83 82 83 83 83 84 84 84 84 85 85 84 85 85 84 84 83 83 83 83 83 83 82 81 82 81 81 82 81 81 81 82 81 81 81 81
82 83 83 83 83 83 83 84 83 83 83 83 84 85 85 85 85 85 84 84 84 84 84 83 83 83 83 83 82 81 81 80 80 82 80 80 81 81 82 82 82 82
83 83 83 82 83 83 85 84 83 83 84 84 85 85 85 85 85 84 84 84 84 85 84 83 83 83 83 83 82 82 81 79 80 83 80 80 81 81 82 84 83 82
82 83 84 84 84 84 84 84 83 83 84 84 84 86 86 86 85 84 84 83 84 84 84 84 83 84 83 82 81 81 81 80 81 81 80 80 80 81 81 82 82 82
83 83 84 84 85 84 84 83 84 84 85 85 85 85 84 84 83 84 84 83 83 84 83 83 83 84 83 82 82 80 81 81 81 80 80 79 80 80 81 80 80 80
83 83 83 84 84 84 84 84 84 85 85 86 84 85 85 84 84 84 84 84 85 85 84 84 84 84 84 82 81 81 81 82 82 79 79 79 80 81 81 80 79 79
83 83 83 84 85 84 84 84 84 84 85 86 85 84 85 84 83 84 84 84 85 84 84 83 83 83 84 82 81 80 80 80 81 79 78 79 79 79 81 79 79 79
84 85 85 84 84 84 84 84 84 84 84 84 84 84 85 85 84 85 84 84 85 83 83 84 83 82 85 83 80 80 80 81 81 79 78 79 79 78 79 79 79 78
85 85 84 84 85 85 86 86 86 85 85 84 85 86 85 85 85 85 83 83 83 83 82 83 82 82 83 82 81 80 80 81 81 80 79 79 79 78 79 79 78 78
84 84 86 86 86 86 87 88 88 87 86 85 85 87 85 84 85 85 84 82 82 82 82 82 82 82 82 82 81 81 80 80 80 80 80 80 80 80 80 79 79 78
85 86 85 85 86 87 87 88 89 89 87 86 86 86 86 85 84 84 83 82 82 82 82 82 82 82 81 82 82 82 81 81 81 80 80 80 80 80 79 79 79 79
85 86 86 86 87 88 88 88 89 88 88 87 87 86 86 86 84 84 83 82 82 83 83 82 82 82 81 82 83 83 82 82 82 81 80 80 80 81 80 80 80 79
86 85 85 87 86 87 87 88 88 89 89 88 87 87 87 86 86 84 83 83 83 83 83 82 82 82 81 81 82 82 81 81 81 81 81 80 81 81 82 81 81 80
87 86 85 85 86 85 85 86 87 88 87 87 87 86 87 87 87 85 85 84 83 83 83 83 82 82 82 81 81 82 81 81 81 81 81 81 80 81 82 82 81 82
85 86 85 85 84 84 84 84 85 86 86 86 85 86 87 88 88 87 85 83 84 83 83 83 83 82 82 82 81 81 82 81 81 81 81 80 80 81 81 81 81 82
84 84 84 83 83 83 82 83 85 85 86 85 84 85 85 85 86 86 86 85 83 83 83 83 82 83 75 67 71 81 81 81 81 80 80 80 79 79 80 80 81 82
84 83 83 83 83 83 83 83 83 84 84 83 83 84 84 83 84 85 86 86 84 84 83 82 83 81 67 65 66 68 78 81 80 80 80 80 80 79 79 79 80 80
84 84 83 83 83 82 82 83 83 83 83 83 83 83 83 84 83 83 83 85 84 85 84 83 83 70 65 64 65 64 68 81 81 81 80 80 80 80 80 80 79 80
84 83 83 83 82 83 83 82 82 82 82 82 83 83 83 82 82 83 83 83 84 83 83 84 85 69 64 64 64 63 64 72 82 82 81 80 80 80 80 79 79 79
84 83 83 82 83 82 82 82 82 82 83 84 84 83 82 82 83 82 82 82 82 82 82 83 83 69 63 62 62 62 63 68 82 81 81 81 80 80 80 80 79 78
84 83 83 83 83 82 82 82 81 82 82 83 84 83 82 81 82 82 82 82 83 83 82 83 84 67 62 61 60 60 61 65 80 81 81 81 80 81 80 80 80 79
84 83 83 83 83 82 82 81 81 81 81 82 83 83 83 84 83 83 83 82 83 83 83 82 85 65 62 60 59 59 60 72 78 79 80 80 80 80 80 80 80 79
84 83 83 83 82 82 81 81 81 81 81 82 81 82 82 82 83 83 83 83 83 83 82 82 85 70 60 59 58 57 62 75 77 79 80 80 79 80 80 80 79 79
83 82 82 82 82 82 82 82 82 82 82 82 81 82 82 83 83 83 84 84 84 83 84 83 85 72 57 58 57 56 64 76 77 78 79 78 79 80 80 79 78 72
84 83 82 82 82 82 83 82 82 82 83 83 83 83 83 83 84 83 84 84 85 85 74 81 85 74 56 58 56 56 65 77 77 78 77 77 78 78 78 79 78 73
84 83 82 82 82 82 83 83 83 83 82 81 81 82 82 84 83 84 83 84 86 85 84 83 83 83 66 56 55 55 59 76 79 77 77 77 78 78 77 76 77 77

ECMWFNIL_sfc_temp_036.txt.gz
Temp
87 87 87 87 88 89 88 88 89 89 88 90 90 90 90 91 91 91 91 90 90 90 89 88 88 88 89 88 87 87 87 86 87 88 87 87 86 87 86 87 87 87
87 87 87 88 88 88 89 90 88 89 88 89 90 91 91 91 92 91 90 90 90 90 90 90 89 88 87 88 87 86 86 86 86 88 86 86 86 87 88 87 87 87
88 88 88 88 89 89 91 90 89 89 90 90 90 91 92 92 91 90 90 90 90 91 90 89 89 88 88 88 87 87 86 85 85 89 86 85 87 86 87 89 88 87
87 88 89 89 89 89 90 89 89 89 90 90 90 92 92 93 91 91 90 89 90 90 90 90 90 90 88 88 87 87 87 86 87 87 86 86 86 87 86 87 88 88
88 88 89 90 90 89 89 89 90 90 90 90 91 91 90 90 90 91 90 89 89 90 90 89 89 89 88 87 87 86 87 87 87 86 85 85 85 86 87 87 86 86
88 88 88 89 89 89 89 90 89 91 91 92 90 92 91 90 90 91 90 90 91 91 91 91 90 90 90 88 87 86 87 88 89 86 85 85 86 87 88 86 85 85
89 88 89 90 90 89 89 89 89 90 91 92 91 90 91 91 89 89 90 90 91 90 91 89 88 88 89 88 87 86 86 87 88 87 85 85 85 85 87 86 84 84
90 90 90 89 90 90 89 90 90 90 90 90 91 90 91 92 90 91 90 90 91 90 89 90 88 87 90 89 87 86 86 88 87 86 85 85 85 84 85 86 84 83
90 90 90 89 90 91 92 92 92 91 91 90 92 93 91 91 91 92 89 89 89 89 88 89 88 88 89 89 87 86 86 88 88 87 85 85 84 84 85 85 84 84
89 90 92 92 92 92 93 94 94 93 92 91 92 94 92 90 91 91 90 88 88 88 88 88 88 88 88 89 88 87 87 86 87 86 86 86 85 85 86 85 84 83
91 92 92 92 93 94 94 95 95 95 94 92 93 93 94 92 90 91 89 88 88 88 88 88 88 88 88 89 89 88 88 88 87 86 86 86 86 86 84 85 85 85
91 92 92 93 93 94 95 95 96 96 96 94 94 93 93 94 91 91 90 88 88 89 89 88 88 88 88 88 90 89 88 89 89 87 87 86 87 87 86 86 85 85
92 91 91 94 93 94 95 95 96 97 97 96 94 94 94 94 94 91 90 90 89 89 89 88 88 88 87 87 88 88 88 88 89 88 87 87 87 88 89 88 87 86
93 92 91 91 93 91 92 94 95 95 94 94 94 93 94 95 95 92 92 91 90 89 89 89 88 88 88 87 87 88 88 88 88 88 88 87 87 88 89 89 88 88
91 92 91 91 90 90 89 91 92 93 93 93 93 93 94 96 95 95 92 90 90 89 89 90 89 89 89 88 87 87 88 88 88 88 88 87 87 88 88 88 88 89
90 90 90 89 89 88 88 89 92 92 94 92 92 93 92 92 93 93 94 92 90 90 90 89 89 89 80 71 75 87 88 88 88 87 87 87 86 86 87 88 88 90
89 89 89 88 88 88 88 88 89 91 90 90 90 90 90 90 91 92 93 93 92 91 90 89 90 88 70 67 68 71 84 87 87 86 87 86 87 85 85 86 87 88
90 89 88 88 88 87 87 88 89 89 89 89 89 90 89 91 90 90 90 92 92 92 92 90 90 75 66 66 67 67 72 87 88 87 87 86 86 86 86 87 86 87
89 88 88 87 87 87 87 87 87 87 88 88 89 89 89 88 88 89 89 90 91 89 90 91 92 72 65 64 66 66 67 77 89 88 87 87 86 86 86 86 86 86
89 88 87 87 87 87 87 87 86 86 88 90 90 88 87 87 88 88 88 88 88 89 88 90 91 71 63 63 64 64 65 71 87 88 87 87 86 87 87 86 86 85
88 88 87 87 87 87 87 86 86 86 87 88 89 88 87 87 87 87 87 87 88 89 89 89 92 68 62 61 62 61 63 67 85 86 86 86 86 86 86 87 86 86
89 88 87 88 87 87 86 86 86 86 86 87 88 89 89 89 88 88 88 87 88 88 88 88 92 66 60 60 60 60 62 75 82 84 85 86 86 86 86 86 86 86
89 88 87 87 87 86 86 86 86 86 86 88 87 87 88 88 88 89 88 89 88 88 87 88 91 73 59 59 59 59 64 80 81 83 83 84 85 86 86 86 86 86
89 89 88 87 87 86 86 87 87 87 87 87 87 87 87 89 89 89 89 89 89 89 90 89 90 76 57 58 58 57 67 80 81 82 82 83 84 85 86 85 85 77
90 89 88 88 87 87 87 87 87 87 88 88 88 88 88 89 89 89 89 89 91 91 75 85 90 79 57 59 56 56 68 81 82 82 81 82 83 83 85 86 85 79
89 88 88 89 88 87 88 88 88 88 87 87 88 89 90 90 90 90 89 89 90 89 90 90 89 91 72 56 56 55 60 80 83 82 82 82 83 83 84 84 84 84

ECMWFNIL_sfc_temp_039.txt.gz
Temp
89 89 89 89 89 90 90 90 91 90 90 92 92 91 91 92 92 93 93 92 91 91 91 90 90 89 90 90 89 89 88 88 89 89 88 88 87 88 87 88 88 88
89 89 89 90 89 90 90 91 90 90 90 90 92 93 92 92 93 93 93 92 91 91 90 91 90 89 89 90 89 89 88 88 87 90 88 87 88 88 89 88 88 88
89 89 89 89 91 91 93 92 91 91 92 92 92 93 94 94 93 92 92 93 92 92 91 90 90 89 90 90 89 88 88 87 87 90 88 87 89 87 88 91 89 89
89 89 90 91 92 91 91 91 91 91 92 92 92 94 94 95 93 93 92 91 91 91 91 91 91 91 90 89 89 88 89 87 88 89 88 88 88 88 87 88 89 89
89 90 91 91 92 91 91 91 92 92 92 93 94 93 92 92 92 93 92 92 91 92 91 91 91 90 89 89 89 88 88 88 89 88 87 87 87 87 88 88 87 88
90 90 90 90 91 91 91 92 91 93 93 94 93 94 94 93 93 93 93 92 93 93 93 93 91 91 91 89 88 88 89 89 89 87 87 86 88 88 89 88 87 86
91 90 91 92 92 92 91 91 91 92 94 94 93 93 94 93 92 92 92 93 93 91 93 91 90 90 90 89 88 87 88 89 90 88 86 87 86 87 88 87 86 86
92 92 92 91 92 92 91 92 92 92 92 93 94 93 94 94 92 94 93 93 93 92 91 92 90 89 92 90 88 87 88 90 90 88 87 86 86 85 86 87 86 85
93 92 92 92 93 94 94 94 94 93 93 93 94 95 94 94 94 94 92 92 92 91 90 91 90 90 91 90 89 87 87 89 90 89 87 87 86 86 86 86 86 85
92 93 95 94 94 95 95 96 96 95 94 94 95 97 95 93 94 93 92 90 91 91 91 90 90 90 90 90 89 89 88 87 88 88 88 88 87 87 87 86 86 85
94 95 94 94 95 96 97 97 98 98 96 95 95 96 97 95 92 93 91 90 91 91 90 90 90 90 89 91 90 90 89 89 88 88 88 88 88 87 86 86 86 86
94 95 95 95 96 97 98 98 98 98 98 97 96 96 96 97 94 93 92 91 90 91 91 90 90 90 89 90 92 91 90 90 89 89 89 89 88 88 88 87 87 86
95 94 94 96 95 97 98 98 99 100 100 99 97 96 97 97 97 93 92 92 91 91 91 90 90 90 89 89 90 90 90 89 90 89 89 89 89 89 90 89 89 88
96 95 94 94 95 93 95 97 98 99 98 98 97 96 97 97 98 96 94 94 92 91 91 91 90 90 89 89 89 90 90 89 89 89 90 89 89 89 90 91 90 90
94 95 94 93 93 92 92 94 96 96 97 97 96 96 97 98 98 99 95 93 93 92 91 92 91 90 90 90 89 89 90 90 89 89 90 89 89 90 90 90 90 90
93 93 92 92 92 91 91 92 96 96 98 96 96 96 95 95 95 96 98 95 93 92 92 92 91 91 83 73 77 89 89 90 90 89 89 89 88 88 90 90 91 92
92 92 92 91 91 91 91 91 92 94 94 93 94 94 94 92 94 95 97 97 94 93 92 92 92 91 73 69 70 74 86 89 89 88 89 89 89 87 87 88 90 90
92 91 91 90 90 90 90 91 92 92 92 92 93 94 92 94 94 93 93 96 95 95 94 92 92 78 68 68 69 69 75 89 90 90 89 89 89 89 88 89 89 90
91 91 90 90 90 90 90 90 90 90 91 92 93 93 93 91 91 92 92 94 94 92 93 93 94 75 66 66 68 68 69 79 91 90 90 89 89 88 89 88 88 88
91 91 90 90 90 90 90 89 89 89 91 93 93 92 91 91 92 91 91 91 92 92 91 93 94 73 65 64 66 66 68 74 90 91 90 90 89 89 89 88 88 87
91 90 90 90 90 89 89 89 89 89 90 91 92 92 91 90 90 90 90 90 92 93 92 93 95 70 63 63 63 63 66 70 88 90 89 89 89 89 89 89 89 88
92 90 89 90 89 89 89 88 88 88 88 90 91 92 92 92 91 91 91 90 91 91 92 92 96 67 62 62 62 62 64 78 85 87 88 89 89 89 89 88 89 88
92 91 90 89 89 89 88 88 88 88 89 90 90 91 91 91 90 91 90 91 90 90 90 90 94 73 59 60 61 60 65 81 84 86 86 87 88 88 88 88 88 89
91 91 90 90 89 89 89 89 89 89 89 90 89 89 90 92 91 91 91 91 91 91 92 91 93 77 57 59 59 58 67 82 84 84 85 85 86 88 88 88 87 78
92 91 91 90 89 89 90 89 89 89 90 90 90 90 91 91 91 91 91 91 94 93 79 88 92 81 56 59 57 57 68 82 84 84 83 84 85 86 87 88 87 80
92 91 91 91 90 90 90 90 90 90 90 90 90 91 92 93 92 92 91 92 94 93 93 92 92 92 70 57 56 56 60 81 85 83 83 83 85 85 85 86 86 87

ECMWFNIL_sfc_temp_042.txt.gz
Temp
86 86 86 85 86 86 86 86 87 87 86 87 87 87 86 87 88 88 88 88 87 87 87 87 86 86 87 86 86 86 86 85 86 85 84 84 83 85 84 84 84 81
86 86 85 86 85 85 86 87 87 86 86 86 87 87 87 88 89 89 88 88 87 87 87 88 87 86 86 86 86 85 84 85 85 87 84 84 83 84 85 85 84 83
86 86 86 86 87 87 89 88 87 87 88 88 88 88 89 90 89 88 88 88 88 89 87 87 87 86 86 86 85 85 85 84 83 87 84 83 84 83 84 87 85 85
86 86 87 88 88 88 88 88 87 87 89 88 88 91 91 91 89 89 88 88 87 87 88 88 87 88 86 86 86 85 85 84 85 85 84 83 83 84 83 84 85 85
86 86 87 88 88 88 88 88 89 89 89 89 90 89 88 88 88 89 88 88 87 88 87 87 87 87 86 86 86 84 85 85 85 84 83 83 83 84 85 83 83 83
86 86 86 87 87 87 88 88 89 90 90 91 89 90 90 89 89 90 89 89 90 90 89 89 88 88 88 86 85 84 85 86 86 84 84 83 84 85 86 83 82 82
87 87 88 88 89 89 88 88 88 89 90 90 90 89 90 90 89 89 89 89 90 88 89 87 86 86 87 86 84 84 84 84 85 84 83 83 83 83 85 84 82 81
88 89 88 88 89 89 88 89 89 89 89 89 90 90 90 91 89 91 90 89 90 88 87 88 86 85 88 86 84 84 84 86 86 84 83 83 83 82 82 84 82 81
89 88 88 88 89 90 91 91 91 90 90 90 91 92 91 91 90 91 88 88 88 87 87 87 86 87 87 86 85 84 84 85 86 85 83 83 83 82 83 83 82 81
88 89 90 90 90 90 91 92 93 92 91 91 92 93 92 90 90 90 89 87 88 87 87 87 87 87 87 87 86 85 84 84 84 85 85 84 84 84 84 83 82 81
90 90 90 90 90 92 92 93 94 93 92 92 92 92 93 91 89 90 88 87 88 88 87 87 87 87 86 88 87 86 85 85 85 85 85 85 84 83 83 83 83 82
90 91 91 90 91 92 93 94 94 94 93 92 92 92 92 93 91 90 89 87 87 88 88 87 87 87 86 87 88 88 86 86 86 85 85 85 85 85 84 84 83 83
91 91 91 92 91 93 94 94 94 95 95 94 93 93 93 94 93 90 89 89 88 88 88 87 87 87 86 86 87 86 86 86 86 85 85 85 86 86 86 85 85 84
92 91 91 90 92 89 91 93 94 94 94 93 93 92 93 94 94 92 91 91 89 88 88 88 87 87 87 86 86 87 86 86 86 86 86 86 86 86 87 87 86 86
90 91 91 90 89 88 89 90 92 92 92 92 92 93 94 95 95 95 91 90 90 89 88 89 88 88 88 87 86 86 87 87 86 86 86 85 85 86 86 86 86 87
89 89 89 89 88 88 87 88 92 92 94 93 92 93 92 91 91 92 94 91 90 89 89 89 88 89 81 73 77 86 86 87 86 85 85 85 84 84 86 86 87 88
89 89 89 88 88 88 88 88 89 91 90 90 90 91 91 89 90 92 94 94 91 90 89 89 89 88 73 69 71 75 84 86 86 85 85 85 85 84 84 85 86 86
90 89 88 88 88 87 88 88 89 89 89 89 90 91 89 91 91 90 90 92 92 91 91 89 89 77 69 68 69 70 75 86 87 86 86 85 85 85 85 85 85 86
89 88 88 88 87 88 88 88 87 88 88 89 90 90 90 88 88 90 89 90 91 89 90 90 90 75 67 66 68 68 69 78 88 87 86 86 85 85 85 84 84 85
89 88 88 88 88 88 88 87 87 87 89 92 91 89 88 89 90 89 89 88 89 89 88 90 90 75 65 65 66 66 68 73 87 87 86 86 85 86 86 85 85 84
89 89 88 88 88 88 87 87 87 87 88 90 91 90 89 88 89 89 88 88 90 90 89 90 92 72 64 63 64 64 66 70 86 87 86 86 86 86 85 86 85 85
90 89 88 88 88 88 87 87 87 87 87 88 89 90 90 90 89 90 89 89 89 89 90 89 93 70 63 62 62 63 64 74 82 85 85 85 86 86 86 85 86 85
90 89 88 88 88 87 87 87 86 86 87 88 87 89 89 89 89 90 89 90 89 88 88 88 92 75 61 61 61 61 64 76 80 84 84 85 85 85 86 86 86 86
90 89 88 88 88 87 87 87 88 88 88 87 87 87 88 90 89 89 90 90 90 89 90 89 91 77 58 60 59 59 66 77 80 82 83 83 84 85 85 85 85 79
90 90 89 88 88 88 88 87 87 87 88 87 88 88 89 89 89 89 90 89 92 91 79 86 90 81 57 59 57 58 66 78 81 82 82 83 83 83 85 85 85 79
90 89 89 89 88 88 88 88 88 88 87 88 88 90 90 91 90 90 89 90 91 91 91 89 89 90 72 56 57 56 59 77 82 81 81 82 83 83 83 84 84 85

ECMWFNIL_sfc_temp_045.txt.gz
Temp
82 81 81 81 81 81 81 81 82 82 80 81 81 81 82 82 83 83 82 82 82 82 81 81 81 81 82 81 80 80 80 80 80 79 79 78 77 78 77 76 75 75
81 82 82 82 81 81 80 82 82 82 81 80 82 81 81 82 83 84 82 82 82 83 82 81 81 81 81 81 80 79 79 79 79 81 80 78 78 79 78 77 76 75
82 81 81 81 82 81 83 82 82 82 82 82 82 82 82 83 83 83 83 82 82 83 82 82 81 81 81 80 80 80 79 79 79 81 79 78 78 78 78 79 77 76
82 82 82 83 83 82 83 82 81 82 83 82 82 83 84 85 83 83 83 83 82 82 83 83 82 82 81 80 80 79 79 79 80 79 79 78 78 79 78 78 78 78
82 82 83 83 83 83 83 83 83 82 83 83 84 83 83 83 83 83 82 82 82 82 82 82 82 82 81 81 80 79 79 79 79 78 78 77 78 78 79 78 77 77
82 82 83 83 83 83 83 83 83 83 83 84 84 85 83 83 84 84 83 83 83 83 83 83 82 82 82 81 80 80 80 79 79 79 77 78 78 79 80 78 77 76
82 82 83 83 83 83 83 83 83 83 84 85 84 84 85 83 83 84 84 84 83 83 83 82 82 82 82 81 80 79 80 80 79 79 78 77 77 78 80 78 78 76
83 83 83 83 83 83 83 83 83 83 84 84 84 84 85 85 83 84 84 84 84 83 83 83 82 82 82 81 80 79 80 81 80 79 79 78 77 77 78 78 78 77
83 83 83 83 83 84 84 84 84 84 84 84 85 85 85 86 85 84 83 84 84 83 82 82 82 82 82 81 81 80 80 80 81 80 79 78 77 77 78 78 77 77
83 83 83 84 83 84 84 85 85 85 85 85 85 86 85 85 85 85 83 83 83 83 82 82 82 82 82 82 81 81 80 80 80 80 80 79 79 79 78 78 78 76
83 84 83 83 84 85 85 86 86 87 86 86 86 86 86 85 84 85 84 82 83 83 83 83 83 82 82 82 82 82 81 81 80 80 80 80 80 79 80 78 78 78
84 84 84 84 84 85 86 86 87 87 86 86 86 86 86 86 85 85 85 83 83 84 83 83 83 83 82 82 83 82 81 81 81 80 80 80 80 80 80 79 79 78
84 84 84 85 85 85 86 86 87 88 88 87 87 87 87 87 86 85 85 84 84 84 84 83 83 83 82 82 82 82 81 81 81 80 80 80 80 81 81 80 80 80
85 85 85 85 85 85 85 86 87 87 87 87 87 87 88 87 87 86 85 85 85 84 84 84 83 83 83 82 82 82 82 81 81 80 81 80 80 81 81 81 81 81
85 86 85 85 85 84 84 85 86 86 87 87 86 87 88 88 88 87 86 85 85 84 84 84 84 83 83 83 82 82 82 82 81 81 81 80 80 81 81 81 81 82
85 85 85 84 84 83 83 84 86 86 87 86 86 87 87 87 87 87 87 86 84 84 84 84 84 84 79 72 75 83 82 83 82 81 81 81 80 80 81 81 82 82
85 84 84 83 84 84 83 84 84 86 86 85 85 85 86 85 86 87 87 87 86 85 84 84 84 84 72 67 69 72 81 82 82 81 81 81 81 80 80 81 81 82
85 84 84 83 83 83 83 83 84 85 84 84 85 85 85 86 86 86 86 87 86 86 85 84 84 75 69 67 68 68 72 83 83 82 81 81 81 81 81 81 81 81
85 84 84 84 83 84 83 83 83 83 84 84 85 85 85 84 85 85 85 86 85 85 85 85 85 74 67 66 66 67 68 75 84 83 82 82 81 81 81 81 81 80
85 85 84 84 84 84 83 83 83 83 84 86 86 85 84 84 85 85 85 85 85 84 84 86 85 74 66 65 65 65 66 70 84 83 83 82 82 82 82 81 81 80
85 85 84 84 84 83 83 83 83 83 84 85 86 85 84 84 85 85 85 85 86 86 84 85 86 72 65 64 63 63 65 67 82 83 83 82 82 82 82 82 82 81
86 85 84 84 84 83 83 83 83 83 83 84 85 86 86 86 85 86 85 85 85 86 85 84 87 69 64 63 62 62 64 73 80 82 82 82 82 82 82 82 82 82
86 85 85 84 84 83 83 83 83 83 83 84 84 85 85 85 85 85 86 86 85 85 85 85 86 72 62 61 61 61 63 75 78 81 81 82 82 82 82 82 82 82
86 86 85 84 84 84 84 84 84 84 84 84 84 84 84 86 85 85 86 86 85 85 85 85 86 75 59 60 59 59 65 77 78 79 80 81 81 82 82 82 82 77
86 86 86 85 84 84 85 84 83 84 84 83 84 85 85 85 83 84 85 85 86 85 78 83 86 79 58 58 57 58 65 77 79 79 79 80 80 81 81 82 82 78
86 86 85 86 85 84 85 84 84 83 83 83 84 85 85 84 83 84 84 85 85 85 85 84 84 86 69 56 56 56 59 75 79 78 78 79 80 80 80 81 82 82

ECMWFNIL_sfc_temp_048.txt.gz
Temp
80 79 79 79 79 79 79 79 79 78 78 78 78 78 79 79 79 79 80 79 79 79 79 79 79 78 79 78 78 78 77 77 78 77 77 76 74 74 74 73 72 71
79 80 80 80 79 78 78 79 79 79 78 78 79 79 79 79 79 80 79 79 79 80 79 79 79 79 78 78 77 77 77 77 77 78 77 76 76 75 75 74 73 72
79 79 79 79 79 79 79 79 79 79 79 79 79 79 79 80 80 80 79 80 79 80 79 79 79 79 79 78 77 77 77 76 77 78 77 76 76 75 75 75 73 73
79 80 80 80 80 80 80 79 79 79 80 78 78 80 80 81 80 80 79 80 79 79 80 79 79 79 79 79 78 77 77 77 78 77 77 76 76 76 76 75 75 74
80 80 80 80 81 80 80 79 79 80 80 80 80 79 79 79 79 80 79 79 79 79 79 79 79 79 79 79 78 77 77 77 77 77 77 76 76 76 76 75 74 74
80 80 80 80 80 80 80 80 80 80 80 81 81 81 80 80 80 80 80 80 80 80 80 80 79 80 80 79 78 78 78 77 77 77 77 76 76 76 77 76 75 74
80 80 80 80 80 80 80 80 80 80 81 82 81 81 81 80 80 80 80 80 80 80 80 79 79 79 79 79 78 78 78 77 77 76 76 76 76 75 77 76 75 75
80 80 80 80 80 80 80 80 80 80 81 81 81 81 81 81 81 81 81 81 81 80 80 80 79 79 80 79 78 78 78 78 78 76 76 76 76 75 75 76 76 75
81 80 80 80 80 80 80 81 81 81 81 80 81 82 82 82 82 82 81 81 80 80 79 80 79 80 80 79 79 78 78 78 78 77 77 76 75 76 76 76 75 75
80 80 80 80 80 81 81 81 82 82 81 81 81 82 82 82 82 82 82 81 81 80 80 80 80 80 80 80 79 79 78 78 78 78 78 78 77 77 76 76 76 75
80 81 80 80 81 81 81 82 82 83 82 82 82 82 82 82 82 82 81 81 81 81 80 80 80 80 80 80 80 80 79 79 78 78 78 78 78 78 78 77 76 76
81 81 81 81 81 81 82 82 83 83 83 83 83 82 82 82 82 82 82 81 81 81 81 81 80 80 80 80 80 80 79 80 79 79 78 78 78 78 78 77 77 77
81 81 81 81 81 82 82 82 83 83 83 83 83 83 83 83 82 82 82 82 81 81 81 81 81 80 80 80 80 80 79 79 79 79 79 78 78 78 78 78 78 77
82 82 81 81 82 81 82 82 83 83 83 83 83 83 83 83 83 82 82 83 82 82 82 82 81 80 80 80 80 80 79 79 79 79 78 78 78 78 78 78 78 78
82 82 82 81 81 81 81 81 82 82 83 83 83 83 84 84 85 84 82 82 82 82 82 82 81 81 81 81 80 80 80 79 79 79 78 78 78 78 78 78 78 79
82 81 81 81 81 80 80 81 82 82 83 82 82 83 83 83 84 84 83 82 82 82 82 81 81 82 77 70 73 80 80 80 79 79 78 78 78 78 78 78 79 79
82 81 81 80 80 80 80 80 81 82 82 81 82 82 82 82 83 83 84 84 83 82 82 81 82 82 71 67 68 70 79 80 79 78 78 78 78 77 77 78 78 79
82 81 81 80 80 80 80 80 81 81 81 81 81 82 82 83 82 82 83 83 83 83 82 82 82 73 68 66 67 67 70 80 80 80 79 78 78 78 78 78 78 78
82 81 81 81 80 81 81 80 80 80 80 81 81 82 82 81 81 82 82 83 83 82 82 83 82 72 67 65 65 66 66 73 82 81 80 79 79 79 78 78 78 78
82 82 81 81 81 81 81 80 80 80 81 82 82 82 81 81 82 82 82 82 82 82 82 83 82 73 66 64 64 64 65 68 81 81 81 80 79 79 79 79 79 78
82 82 81 81 81 81 80 80 80 80 81 81 82 82 81 81 82 81 82 82 82 83 82 82 83 71 64 63 62 62 64 65 79 81 81 81 80 80 80 80 80 79
83 82 81 81 81 81 80 80 80 80 80 81 82 82 83 83 82 82 82 82 82 83 82 82 84 70 64 62 61 61 62 70 76 79 80 81 80 80 80 80 80 80
84 83 82 81 81 81 80 80 80 80 81 82 81 82 82 82 82 82 82 82 82 82 82 82 83 73 63 61 60 60 62 73 76 78 79 80 81 80 80 80 80 80
84 84 82 82 82 81 81 81 81 82 82 82 81 81 81 82 82 82 83 83 82 82 83 82 83 75 60 59 58 59 64 74 76 77 78 79 80 80 80 80 80 77
85 84 84 83 82 82 82 81 81 81 82 82 82 82 82 83 82 82 82 83 83 83 77 81 83 75 58 59 58 58 64 75 77 77 77 78 78 79 80 80 80 77
85 84 84 84 83 83 83 82 83 82 82 82 82 83 83 83 83 83 82 82 83 82 82 82 82 82 66 57 57 57 59 74 78 77 77 77 78 79 79 79 79 80

ECMWFNIL_sfc_temp_051.txt.gz
Temp
79 78 78 77 77 77 77 76 76 76 75 75 75 75 76 77 77 77 77 77 77 77 76 76 76 76 77 77 76 76 76 76 76 75 75 75 74 73 73 72 70 70
78 78 78 78 76 76 76 77 76 76 75 75 76 76 76 76 77 77 77 77 77 77 77 77 76 77 76 76 76 76 75 75 75 77 75 74 74 73 74 73 72 70
78 78 78 77 77 77 77 77 77 77 76 77 77 76 76 77 77 77 77 77 77 77 77 77 77 77 77 76 76 76 76 75 75 76 75 75 74 73 73 74 72 71
78 78 78 78 78 77 77 76 76 76 77 76 76 77 78 78 77 77 76 78 77 77 77 77 77 77 77 77 76 76 76 75 76 75 75 75 75 75 74 73 73 72
78 78 78 79 79 78 77 76 77 77 77 77 77 76 77 76 76 77 76 77 77 77 77 77 77 77 77 77 76 76 76 75 75 75 75 75 75 74 75 73 72 72
78 78 78 78 78 78 77 77 77 77 78 77 77 77 77 77 77 77 77 77 77 77 77 77 77 77 77 77 76 76 76 75 75 75 75 75 75 75 76 74 72 72
78 78 78 79 78 78 78 78 78 78 78 79 77 76 77 77 77 77 77 77 77 77 77 77 76 77 77 77 76 76 76 76 76 75 74 75 74 74 75 74 73 73
79 79 79 79 78 78 78 78 78 78 78 77 77 77 77 78 77 78 78 78 78 77 77 77 77 77 77 77 76 76 76 77 76 75 74 75 74 74 74 75 74 73
79 79 78 78 78 78 78 79 79 78 78 77 78 78 77 78 78 78 78 77 77 77 77 77 77 77 77 77 76 76 76 76 76 76 75 75 74 74 74 74 73 73
79 79 79 79 78 79 79 79 80 79 79 78 79 79 78 78 79 78 78 77 77 77 77 77 77 77 77 77 77 77 76 76 76 76 76 76 76 75 75 74 74 73
79 79 79 78 79 79 79 80 80 80 79 79 79 79 79 79 78 78 78 77 77 77 77 77 77 77 77 77 77 78 77 77 76 76 76 76 76 76 76 75 74 74
79 79 79 79 79 79 80 80 80 80 80 80 79 79 79 80 79 79 79 78 78 78 78 78 78 77 77 78 78 78 77 77 77 77 77 76 76 76 76 76 75 75
79 79 79 79 79 80 80 80 80 81 81 80 80 80 80 80 80 79 79 79 79 79 79 78 78 78 78 77 78 78 77 77 77 77 77 77 77 77 77 76 76 76
80 80 80 79 80 79 79 80 80 80 80 80 80 80 80 80 80 79 80 80 80 79 79 79 78 78 78 78 78 78 78 77 77 77 77 77 77 77 77 77 77 76
80 80 80 80 79 79 78 79 79 80 80 80 80 80 81 81 81 81 80 79 80 79 79 79 79 79 79 79 78 77 78 78 77 77 77 77 76 76 76 76 77 77
79 79 79 79 79 78 78 78 79 79 80 79 79 80 80 80 80 80 81 80 79 79 79 79 79 79 75 69 71 79 78 78 78 77 77 77 76 76 76 76 77 77
79 79 79 78 78 78 78 78 78 79 79 78 79 79 79 79 80 80 80 81 80 80 79 79 80 79 70 66 66 68 77 78 78 77 77 77 77 76 76 76 76 77
79 79 78 78 78 78 78 78 78 78 78 78 78 79 79 80 79 79 79 80 80 80 80 80 80 72 68 66 65 65 68 78 79 78 77 77 77 76 77 77 76 77
79 79 78 78 78 78 78 78 78 77 78 78 78 79 79 78 78 79 79 80 80 79 79 80 80 71 67 65 65 64 64 70 79 79 77 77 77 77 77 77 77 76
79 79 78 78 79 78 78 78 77 77 78 79 79 79 78 78 79 79 79 78 79 79 79 80 80 72 66 64 63 63 64 66 77 79 79 78 78 78 78 77 77 77
80 79 79 79 79 79 78 78 78 78 78 79 79 79 78 78 78 78 79 79 79 80 79 80 81 70 65 62 61 61 62 63 75 78 79 79 79 79 78 78 78 77
80 79 79 79 79 79 78 78 78 78 77 78 79 79 79 79 79 79 79 79 79 79 79 79 82 69 64 62 61 60 61 68 73 76 77 79 79 79 79 79 78 78
81 80 80 79 79 78 78 78 78 78 78 79 78 79 79 79 79 79 79 79 79 79 79 79 80 72 63 60 59 59 61 70 72 75 76 77 78 79 79 79 79 79
82 81 80 80 79 79 78 79 79 79 79 79 79 78 78 79 79 79 80 80 79 79 80 79 80 75 63 59 58 58 62 72 73 74 75 76 77 78 79 79 79 76
82 82 81 81 80 79 80 79 79 79 80 80 80 80 80 80 80 79 79 80 80 80 75 78 80 76 62 59 57 57 63 73 74 74 74 75 76 77 78 78 79 77
83 82 82 81 81 80 80 80 80 80 79 79 79 80 80 80 80 80 79 79 80 80 80 79 80 81 73 59 57 56 58 72 75 74 74 75 76 76 77 77 78 79

ECMWFNIL_sfc_temp_054.txt.gz
Temp
78 77 77 77 76 76 76 75 75 75 75 76 76 76 76 77 77 77 77 77 77 77 77 77 77 77 78 78 78 78 77 77 78 78 77 77 77 77 76 76 75 74
78 78 78 77 76 76 76 76 76 75 75 75 76 76 77 77 77 78 77 77 78 78 77 78 77 78 78 78 77 77 77 77 77 78 77 76 77 77 77 77 76 75
78 78 78 77 77 77 78 77 76 76 76 76 77 76 76 77 77 77 77 78 77 78 77 77 78 77 78 78 77 77 77 77 77 78 77 77 77 76 77 78 77 76
78 78 78 79 78 77 77 76 76 76 76 75 76 77 77 78 77 77 77 78 77 77 78 78 78 78 78 78 77 77 77 77 78 78 77 77 77 77 77 77 77 76
78 78 78 79 79 78 77 76 77 76 77 77 77 77 77 77 77 77 77 77 77 78 77 77 78 78 78 78 77 77 77 77 77 77 77 76 77 77 77 76 76 76
78 78 78 78 78 77 77 77 77 77 77 77 77 77 77 77 77 77 77 77 78 78 78 78 78 78 78 78 77 77 77 77 78 77 76 76 77 77 78 76 76 75
78 78 78 79 78 78 77 77 77 77 78 78 77 77 77 77 77 77 77 77 78 78 78 77 77 77 78 78 77 77 77 77 77 77 76 76 77 76 77 77 76 75
79 79 79 78 78 78 78 78 78 77 78 77 77 77 77 78 77 78 78 78 78 77 77 78 77 77 78 78 77 77 77 78 77 77 76 76 76 76 76 76 76 75
79 79 78 78 78 79 79 79 78 78 78 77 78 78 78 78 78 79 78 77 77 77 77 77 77 77 78 78 77 77 77 77 78 77 77 76 76 76 77 77 76 76
78 78 79 79 78 79 79 80 80 79 78 78 79 79 78 78 79 78 78 77 77 77 77 77 77 77 78 78 77 78 77 77 77 77 77 77 77 77 77 76 76 76
79 79 78 78 79 80 80 80 80 80 79 79 79 79 79 78 78 78 78 77 77 77 77 77 78 78 77 78 78 78 78 78 78 77 77 77 78 77 77 77 76 76
79 79 79 79 79 80 80 80 81 80 80 80 80 79 79 79 79 78 78 77 78 78 78 78 78 78 77 78 78 78 78 78 78 78 78 78 78 78 78 78 77 77
79 79 79 79 79 80 80 80 80 81 81 80 80 80 80 80 80 79 79 79 78 79 78 78 78 78 78 78 78 78 78 78 78 78 78 78 78 78 79 78 78 78
80 80 79 79 79 78 79 80 80 80 80 80 80 80 80 80 80 79 80 80 79 79 79 79 78 78 78 78 78 78 78 78 78 78 78 78 78 78 79 79 79 79
79 80 79 79 78 78 78 78 79 79 79 80 79 80 81 81 81 81 80 79 79 79 79 79 79 78 79 78 78 78 78 78 78 78 78 78 78 78 78 79 79 79
78 78 78 78 78 77 77 78 79 79 80 79 79 80 79 79 80 80 81 80 79 79 79 79 79 79 74 68 70 78 78 79 78 78 78 78 78 77 78 78 79 80
78 78 78 77 77 77 77 77 78 78 78 78 78 78 78 78 79 79 80 81 80 80 79 79 80 79 69 65 65 68 77 78 78 78 78 78 78 77 77 78 79 79
78 78 77 77 77 77 77 77 78 78 77 77 78 78 78 79 79 78 78 80 80 80 80 80 80 71 66 65 65 64 67 78 79 79 78 78 78 78 78 78 78 79
78 77 77 77 77 77 77 77 77 77 77 77 78 78 79 77 77 78 78 79 79 78 79 80 81 70 65 64 64 64 63 70 80 80 79 79 78 78 78 78 78 78
78 78 77 77 77 77 77 77 77 77 78 79 79 78 77 77 78 78 78 78 78 78 78 80 80 71 65 63 63 62 63 65 77 79 79 79 79 79 79 79 78 78
78 78 77 77 77 77 77 77 77 77 77 78 79 78 77 77 78 78 78 78 79 79 79 79 81 69 64 62 61 60 61 63 75 77 79 79 79 79 79 79 79 79
79 78 78 78 78 77 77 77 77 77 77 78 78 79 79 79 78 79 78 78 78 79 79 78 81 68 63 62 60 60 61 68 73 75 77 78 79 79 80 79 80 79
79 79 78 78 78 77 77 77 77 77 77 78 77 78 78 78 78 79 79 79 79 78 78 78 80 72 63 60 59 58 60 71 73 74 75 77 78 79 79 80 80 80
80 79 79 78 78 78 77 78 78 78 78 78 78 77 78 79 79 79 79 80 79 79 80 79 80 74 63 59 58 58 63 73 73 74 75 76 77 78 79 79 80 76
80 80 80 79 78 78 79 78 78 78 79 79 79 79 79 79 79 79 79 79 81 80 74 77 80 76 63 59 58 56 63 74 75 75 74 75 76 77 78 79 79 77
81 80 80 80 79 79 79 79 79 79 79 79 79 80 80 80 80 80 79 79 80 80 80 79 80 80 74 59 57 55 58 73 75 75 75 75 76 76 77 77 78 79

ECMWFNIL_sfc_temp_057.txt.gz
Temp
82 82 82 82 83 83 83 83 84 84 83 85 85 85 85 85 85 85 85 85 85 85 85 84 84 84 85 85 84 84 84 84 85 86 85 85 85 86 86 86 85 85
82 82 82 83 83 83 83 84 83 83 83 83 85 85 85 85 85 85 85 85 85 85 85 85 84 84 84 85 84 84 84 84 84 87 85 84 85 86 86 86 86 86
83 82 83 83 84 83 85 84 84 84 84 85 85 85 85 86 85 85 85 85 85 86 85 85 85 84 85 85 84 84 85 83 83 87 85 84 85 85 86 88 88 87
82 83 84 85 85 84 85 84 83 84 85 84 85 86 86 87 85 85 84 84 85 85 86 86 85 86 85 85 84 84 85 84 85 85 84 85 85 86 85 86 87 87
83 83 84 85 85 84 84 83 85 84 85 85 86 85 84 84 84 85 85 84 84 85 85 85 85 85 85 84 84 84 85 85 85 84 84 84 85 85 86 85 85 85
83 83 83 84 84 84 84 84 84 85 85 86 85 86 86 85 85 85 85 85 86 86 86 87 86 86 86 85 84 84 85 86 86 84 83 83 85 86 87 85 84 84
84 83 84 85 85 85 84 84 84 84 86 86 86 85 86 85 84 85 85 85 86 85 87 85 84 85 85 85 84 83 84 84 85 84 83 84 84 84 86 85 84 84
85 85 85 85 85 85 84 85 85 84 85 85 86 85 86 86 85 86 85 85 86 85 85 85 85 84 86 85 84 83 84 85 84 83 83 83 83 83 84 85 84 83
85 85 85 85 85 86 86 87 86 86 86 85 86 87 86 86 86 87 85 85 85 84 84 84 84 85 85 85 84 84 84 85 85 84 83 83 83 83 84 85 84 83
84 85 86 86 86 87 87 88 88 87 86 86 86 88 86 85 86 86 85 84 84 84 84 84 84 85 85 85 84 84 84 84 84 84 84 84 84 85 85 85 84 83
86 86 86 86 86 88 88 88 89 89 87 87 87 87 88 86 85 86 84 84 84 84 84 84 84 84 84 85 85 85 85 85 85 84 84 84 85 85 84 85 84 84
85 86 86 86 87 88 88 89 89 89 88 87 88 87 87 88 86 86 85 84 84 85 85 84 84 84 84 84 86 86 85 86 86 85 85 85 85 85 85 85 85 85
86 86 86 87 86 87 88 88 89 89 89 88 88 88 88 88 88 86 85 85 84 85 85 84 84 85 84 84 84 85 85 85 85 85 85 85 86 86 87 87 86 86
86 87 86 86 86 85 86 88 88 88 87 88 87 87 88 88 88 87 87 87 86 85 85 85 85 85 84 84 84 84 85 85 85 85 86 86 85 86 87 88 87 87
85 86 86 85 85 84 84 85 86 86 86 86 86 87 88 89 89 89 87 86 86 85 85 86 86 85 85 85 84 84 85 85 85 85 85 85 85 86 86 86 87 88
84 84 84 84 83 82 82 83 86 86 87 86 85 86 86 86 86 87 88 87 86 86 86 86 85 86 79 70 74 84 85 85 85 84 84 85 84 84 86 86 87 88
83 83 83 82 82 82 83 82 83 85 84 84 84 85 84 84 85 86 87 88 87 87 86 86 86 85 70 66 67 69 81 85 84 84 84 84 84 83 83 85 87 87
84 83 82 82 82 82 82 82 83 83 83 83 84 84 83 85 85 84 84 86 87 88 87 86 86 74 67 65 65 65 69 83 85 85 85 84 84 84 84 85 85 86
83 82 82 82 81 82 82 82 82 82 82 83 83 84 84 82 83 84 84 85 86 85 86 87 88 72 65 64 64 64 64 73 85 86 85 85 85 84 84 84 84 85
82 82 82 82 82 82 82 81 82 81 83 85 85 84 83 83 84 83 83 83 84 84 84 86 87 72 64 63 63 62 63 67 84 85 85 85 85 85 85 85 84 84
83 82 82 82 82 82 81 81 81 82 82 84 85 84 83 82 83 83 83 83 84 85 84 85 87 70 62 61 61 60 61 65 82 83 84 84 85 85 85 85 85 85
83 82 82 82 82 82 81 81 81 81 81 82 83 85 85 85 84 85 84 84 84 84 84 84 88 68 62 61 59 60 61 73 80 81 82 83 84 84 85 85 85 85
84 83 82 82 82 82 81 81 81 81 82 83 82 83 83 84 84 85 84 85 84 84 84 84 87 73 61 60 58 58 63 78 79 81 82 82 83 84 85 85 85 85
84 84 83 82 82 82 82 82 83 83 83 83 82 82 83 84 85 85 85 85 85 85 86 85 86 75 60 59 58 57 65 79 80 80 81 81 82 84 84 84 85 79
85 84 84 83 82 82 83 82 82 82 83 83 84 84 84 84 85 85 85 85 88 87 77 82 86 79 60 59 57 56 66 80 81 81 80 81 82 82 84 84 84 81
85 84 84 84 83 83 83 83 84 83 83 84 84 85 85 86 86 85 85 86 87 87 87 86 86 87 76 57 57 55 58 78 82 81 80 81 82 82 83 83 84 84

ECMWFNIL_sfc_temp_060.txt.gz
Temp
87 87 87 87 88 89 89 89 90 89 89 91 92 91 91 91 91 92 93 92 91 91 91 90 90 89 90 90 89 89 89 89 90 91 90 90 90 90 90 90 90 90
86 87 87 88 88 88 89 90 89 89 88 89 91 92 91 91 92 92 92 91 91 91 91 91 90 89 89 90 89 89 88 89 88 92 89 89 89 90 91 91 91 90
87 87 87 88 89 89 91 90 89 90 91 91 91 91 93 93 92 91 91 92 91 93 91 90 90 90 90 90 89 89 89 87 88 92 90 89 90 90 91 93 93 91
86 87 88 89 90 90 90 90 90 89 91 91 91 93 93 94 92 92 90 90 91 91 92 92 91 92 90 90 89 89 90 88 89 89 89 89 89 91 90 91 92 93
87 87 89 89 90 90 90 90 91 91 91 91 93 92 91 90 91 92 91 90 89 91 91 91 91 91 90 90 89 89 90 90 90 88 88 88 89 90 91 91 90 90
88 88 88 88 89 89 90 90 90 91 91 93 92 93 92 91 91 91 91 92 92 92 93 93 92 92 92 90 89 89 90 91 92 88 88 87 90 92 93 91 90 89
89 88 89 90 90 90 89 89 90 90 92 93 92 91 92 92 90 90 91 91 92 92 93 91 90 91 92 91 89 88 89 89 90 89 87 88 88 89 92 91 89 89
90 90 90 90 90 90 89 90 91 90 91 91 92 91 92 93 91 92 91 91 92 91 90 91 90 89 92 91 89 88 89 91 90 88 87 87 88 87 88 90 90 88
91 90 90 90 91 92 93 93 92 92 92 91 92 94 92 92 92 93 90 90 90 90 89 90 89 90 90 91 90 89 89 90 91 90 88 88 88 88 89 89 89 88
90 91 92 92 92 93 93 94 95 94 92 92 93 95 93 91 92 92 91 89 89 89 89 89 89 90 90 91 90 89 89 88 89 89 90 89 89 90 90 89 89 88
92 93 92 92 93 94 95 95 96 96 94 93 94 94 95 93 91 92 90 89 90 89 89 89 89 90 89 91 91 91 90 91 90 89 89 89 90 90 89 90 90 90
91 93 93 93 93 95 95 96 96 96 96 94 94 93 94 95 93 92 91 89 89 90 90 89 89 89 89 90 93 93 91 91 91 90 90 90 90 91 91 90 90 90
93 93 93 94 93 95 96 96 96 97 97 96 95 94 94 95 95 92 91 91 90 90 91 90 89 90 89 89 90 91 90 90 91 91 91 91 91 92 93 93 92 91
93 94 93 92 93 91 93 95 96 96 95 95 94 94 95 95 96 94 93 93 91 91 91 90 90 90 89 89 89 90 91 90 90 90 92 92 91 92 93 94 94 94
92 93 93 92 91 90 90 92 94 94 94 94 93 94 96 97 97 97 94 92 92 91 91 91 91 90 91 90 89 89 90 91 90 90 91 90 91 93 93 92 93 95
90 90 90 90 90 89 89 90 93 93 95 94 93 93 93 93 94 94 96 94 92 91 91 91 91 92 84 75 79 89 90 91 91 90 90 90 89 89 92 93 94 95
89 89 89 88 88 88 88 88 90 92 92 90 91 91 91 91 92 93 94 95 94 93 92 92 92 92 74 68 70 73 87 90 90 89 89 89 90 88 88 90 93 93
90 88 88 87 87 87 87 88 89 90 89 89 90 91 89 92 91 91 91 94 94 94 94 93 93 79 68 67 68 68 74 89 91 90 90 90 89 90 90 90 90 93
88 88 87 87 87 87 87 87 87 88 89 89 90 90 90 88 88 90 90 91 92 91 93 94 95 74 65 65 66 66 67 77 91 91 91 91 90 89 90 89 90 90
88 87 87 87 87 87 87 86 86 86 89 91 91 89 88 88 90 89 89 88 89 90 90 93 94 73 64 63 64 64 65 71 89 90 90 91 90 90 90 90 89 89
87 87 86 87 87 86 86 86 86 86 87 89 90 90 88 87 88 88 88 88 90 91 90 91 95 68 63 62 62 61 63 68 86 88 89 89 89 90 89 90 90 89
88 87 86 87 86 86 86 86 86 86 86 88 89 91 90 91 89 90 89 89 89 90 90 90 94 66 61 61 60 60 62 77 84 85 86 88 88 89 89 89 89 89
89 88 87 86 86 86 86 86 86 86 86 88 88 89 89 89 89 90 89 90 90 89 89 89 93 73 59 59 59 58 65 82 84 85 85 86 87 88 89 89 89 89
88 88 87 87 86 86 86 87 87 87 87 88 87 88 89 90 90 90 91 91 91 90 91 90 92 77 58 58 57 57 68 83 84 85 85 85 86 87 88 88 88 83
89 88 88 88 86 87 88 87 87 87 88 88 89 89 89 90 89 90 91 91 94 93 81 87 93 81 58 60 56 56 69 84 85 85 84 85 86 86 88 89 88 85
89 88 88 89 88 87 87 87 88 88 88 88 89 90 91 92 91 91 90 91 93 93 93 92 91 93 74 57 57 55 60 82 86 85 84 84 86 86 88 88 88 88

ECMWFNIL_sfc_temp_063.txt.gz
Temp
89 89 89 89 90 91 90 90 92 91 90 93 94 92 92 93 93 94 94 93 92 92 92 91 90 90 91 90 90 90 90 90 91 92 91 90 90 91 91 91 91 91
89 89 89 90 90 90 91 92 91 91 90 91 93 94 93 93 94 94 94 94 93 92 92 92 91 90 90 91 90 90 89 89 89 93 91 90 90 92 92 92 92 91
89 89 90 90 91 91 94 92 91 92 93 93 93 93 95 94 94 93 93 94 93 94 92 92 91 90 91 90 90 90 90 88 88 92 91 90 91 91 91 94 94 93
88 89 91 92 92 92 93 92 92 91 93 93 93 96 96 97 94 94 92 92 92 92 93 92 92 92 91 91 90 90 90 89 90 90 90 90 90 91 91 92 93 93
89 89 91 91 92 92 92 92 93 93 93 93 95 94 93 92 93 94 92 92 91 93 92 92 92 92 91 90 90 89 90 91 90 89 89 89 90 90 92 92 91 91
90 89 89 91 91 91 92 93 93 94 94 95 94 96 95 94 94 94 93 93 93 94 94 94 93 93 93 91 90 89 91 92 92 89 88 88 90 92 94 92 91 90
91 90 90 92 93 93 92 92 92 93 95 95 95 94 95 94 93 93 93 93 94 92 94 93 91 92 92 91 89 89 89 90 91 90 88 89 88 90 93 92 91 90
91 92 91 91 93 93 92 93 93 93 94 94 95 94 95 96 93 94 94 94 94 93 92 94 92 91 94 93 90 89 89 92 91 90 89 88 89 88 89 91 91 89
93 92 91 92 93 94 95 95 95 94 94 94 95 97 95 95 95 95 92 92 93 92 92 93 92 92 93 92 91 90 89 91 92 90 89 89 89 88 90 90 90 90
92 92 93 94 94 95 95 96 97 96 95 95 96 97 96 94 95 94 93 91 92 91 92 91 92 92 92 93 92 91 90 89 90 91 91 90 90 90 91 90 91 89
93 94 94 94 95 96 97 97 98 97 96 95 96 96 97 95 93 94 92 91 92 92 91 91 92 92 91 93 93 92 92 92 90 90 91 91 91 90 91 91 91 91
94 95 95 95 95 97 97 98 98 98 97 96 96 96 96 98 94 94 93 91 91 92 92 91 91 91 91 91 94 94 92 93 92 91 91 91 91 91 91 91 91 91
95 95 95 96 95 97 98 98 98 99 99 97 97 97 97 98 97 94 93 93 92 92 93 91 91 92 90 90 92 92 92 92 93 92 92 91 92 93 94 94 93 93
96 96 96 95 95 94 96 98 98 99 98 98 97 96 97 98 99 96 95 95 93 93 93 92 91 92 91 90 91 92 93 92 92 92 93 92 92 93 94 95 95 95
94 96 96 95 94 93 93 95 97 97 97 97 96 96 98 99 99 99 95 94 94 93 92 93 93 92 92 91 90 91 92 93 92 92 92 92 92 94 94 94 95 96
93 93 93 93 93 91 91 93 96 96 98 97 96 96 95 95 95 97 98 95 94 93 93 94 93 94 86 78 82 91 91 94 93 91 91 91 91 91 94 95 95 97
92 92 92 91 91 91 91 92 93 95 95 94 94 95 93 92 95 96 98 97 96 95 94 94 95 95 77 71 73 77 89 91 92 91 91 90 91 90 90 92 94 95
93 91 91 91 91 90 90 91 93 94 93 93 94 95 92 95 95 95 94 97 97 96 95 95 95 83 70 70 70 71 77 91 93 92 92 91 91 91 91 91 92 95
91 91 90 90 90 90 90 90 90 91 92 93 94 94 94 92 91 94 94 95 96 94 95 96 96 77 67 68 69 69 69 80 94 93 93 93 92 91 91 90 91 92
90 90 90 89 90 90 90 89 90 90 93 95 95 93 91 91 93 92 92 91 93 94 92 95 97 74 66 65 67 66 68 73 92 94 93 93 92 92 92 91 91 90
90 90 89 89 89 89 88 88 89 90 92 93 94 93 91 90 92 91 91 92 93 95 94 95 99 68 64 63 64 64 66 71 89 91 92 92 92 93 92 92 92 91
91 90 89 89 89 88 88 88 88 88 89 91 92 94 93 93 91 93 92 92 92 93 94 92 96 62 64 62 63 63 64 80 86 87 88 89 90 91 91 91 91 91
91 90 89 88 88 88 88 88 88 88 89 91 91 92 92 92 91 93 92 93 92 91 92 91 95 68 61 60 61 61 66 84 85 86 86 86 88 90 90 91 91 91
90 90 89 89 88 88 88 89 89 89 90 91 91 91 92 93 93 92 93 93 93 92 93 93 96 75 58 59 59 58 70 85 85 85 85 86 87 88 90 89 90 87
91 90 90 90 88 89 89 89 88 89 90 90 92 92 93 93 93 92 93 93 96 95 84 90 95 81 57 59 58 57 71 85 86 86 85 86 87 87 89 90 89 87
91 90 89 90 89 89 89 89 90 90 90 90 92 93 94 95 94 94 93 93 96 96 95 94 94 92 70 58 57 56 62 84 87 85 85 85 87 87 88 88 89 89